Provisional Data: Susquehanna River near Binghamton, NY


Please select a monitoring station.
Please select start date.
Please select start date.

Toggle Unit: C/F Toggle Unit: C/F
Sample Time Temperature (C) Temperature (F) Specific Conductivity (mS/cm) pH   Turbidity (NTU+) DO (mg/L)
9/6/2021 12:00:00 AM 7.0854 4.5499
9/6/2021 12:15:00 AM 7.0857 4.5547
9/6/2021 12:30:00 AM 7.0859 4.5594
9/6/2021 12:45:00 AM 7.0862 4.5642
9/6/2021 1:00:00 AM 7.0865 4.569
9/6/2021 1:15:00 AM 7.0867 4.5737
9/6/2021 1:30:00 AM 7.087 4.5785
9/6/2021 1:45:00 AM 7.0873 4.5833
9/6/2021 2:00:00 AM 7.0875 4.5881
9/6/2021 2:15:00 AM 7.0878 4.5928
9/6/2021 2:30:00 AM 7.0881 4.5976
9/6/2021 2:45:00 AM 7.0882 4.6
9/6/2021 3:00:00 AM 7.0864 4.5681
9/6/2021 3:15:00 AM 7.0866 4.5712
9/6/2021 3:30:00 AM 7.0868 4.5742
9/6/2021 3:45:00 AM 7.0869 4.5772
9/6/2021 4:00:00 AM 7.0871 4.5803
9/6/2021 4:15:00 AM 7.0873 4.5833
9/6/2021 4:30:00 AM 7.0874 4.5863
9/6/2021 4:45:00 AM 7.0876 4.5894
9/6/2021 5:00:00 AM 7.0878 4.5924
9/6/2021 5:15:00 AM 7.0879 4.5954
9/6/2021 5:30:00 AM 7.0881 4.5985
9/6/2021 5:45:00 AM 7.0882 4.6
9/6/2021 6:00:00 AM 0 0
9/6/2021 6:15:00 AM 0 0
9/6/2021 6:30:00 AM 0 0
9/6/2021 6:45:00 AM 0 0
9/6/2021 7:00:00 AM 0 0
9/6/2021 7:15:00 AM 0 0
9/6/2021 7:30:00 AM 0 0
9/6/2021 7:45:00 AM 6.8462 3.7667
9/6/2021 8:00:00 AM 6.8471 3.7536
9/6/2021 8:15:00 AM 6.8509 3.8602
9/6/2021 8:30:00 AM 6.853 3.9241
9/6/2021 8:45:00 AM 6.8544 3.8
9/6/2021 9:00:00 AM 6.8537 3.7694
9/6/2021 9:15:00 AM 6.8548 3.7617
9/6/2021 9:30:00 AM 6.8363 4.1199
9/6/2021 9:45:00 AM 6.6993 54.3414
9/6/2021 10:00:00 AM 6.6917 237.03
9/6/2021 10:15:00 AM 6.7285 90.1058
9/6/2021 10:30:00 AM 6.7968 6.4562
9/6/2021 10:45:00 AM 6.8399 4.992
9/6/2021 11:00:00 AM 6.8656 4.6658
9/6/2021 11:15:00 AM 6.8842 4.3921
9/6/2021 11:30:00 AM 6.8987 3.9949
9/6/2021 11:45:00 AM 6.9062 3.9999
9/6/2021 12:00:00 PM 6.9182 4.3342
9/6/2021 12:15:00 PM 6.9268 4.1228
9/6/2021 12:30:00 PM 6.9335 3.9789
9/6/2021 12:45:00 PM 6.9483 4.8531
9/6/2021 1:00:00 PM 6.9617 5.3935
9/6/2021 1:15:00 PM 6.9719 5.6133
9/6/2021 1:30:00 PM 6.9884 5.7264
9/6/2021 1:45:00 PM 7.0044 4.3717
9/6/2021 2:00:00 PM 7.0205 3.7657
9/6/2021 2:15:00 PM 7.0342 3.6464
9/6/2021 2:30:00 PM 7.0468 3.7613
9/6/2021 2:45:00 PM 7.0598 3.753
9/6/2021 3:00:00 PM 7.0764 3.7348
9/6/2021 3:15:00 PM 7.0922 3.7525
9/6/2021 3:30:00 PM 7.1117 3.7463
9/6/2021 3:45:00 PM 7.1329 3.8203
9/6/2021 4:00:00 PM 7.1555 3.9055
9/6/2021 4:15:00 PM 7.1793 3.8572
9/6/2021 4:30:00 PM 7.1977 4.1576
9/6/2021 4:45:00 PM 7.2133 4.0139
9/6/2021 5:00:00 PM 7.2265 5.2114
9/6/2021 5:15:00 PM 7.2292 4.6775
9/6/2021 5:30:00 PM 7.2591 3.8248
9/6/2021 5:45:00 PM 7.2618 3.7001
9/6/2021 6:00:00 PM 7.2744 4.0312
9/6/2021 6:15:00 PM 7.3152 3.8834
9/6/2021 6:30:00 PM 7.3423 3.8214
9/6/2021 6:45:00 PM 7.3596 4.7864
9/6/2021 7:00:00 PM 7.3774 4.8853
9/6/2021 7:15:00 PM 7.3955 4.8352
9/6/2021 7:30:00 PM 7.41 4.4485
9/6/2021 7:45:00 PM 7.4187 4.1704
9/6/2021 8:00:00 PM 7.4241 4.185
9/6/2021 8:15:00 PM 7.4279 4.3
9/6/2021 8:30:00 PM 7.4269 4.3996
9/6/2021 8:45:00 PM 7.4242 4.4
9/6/2021 9:00:00 PM 7.4224 4.5078
9/6/2021 9:15:00 PM 7.4203 4.362
9/6/2021 9:30:00 PM 7.4146 4.3706
9/6/2021 9:45:00 PM 7.4104 4.3395
9/6/2021 10:00:00 PM 7.4 4.2764
9/6/2021 10:15:00 PM 7.3857 4.4141
9/6/2021 10:30:00 PM 7.3727 4.7612
9/6/2021 10:45:00 PM 7.3586 4.8008
9/6/2021 11:00:00 PM 7.3438 4.4335
9/6/2021 11:15:00 PM 7.3279 4.2645
9/6/2021 11:30:00 PM 7.3118 4.3326
9/6/2021 11:45:00 PM 7.3052 4.3
9/7/2021 12:00:00 AM 7.2776 4.4686
9/7/2021 12:15:00 AM 7.2611 4.2711
9/7/2021 12:30:00 AM 7.2459 4.0724
9/7/2021 12:45:00 AM 7.2289 4.0207
9/7/2021 1:00:00 AM 7.2093 4.5239
9/7/2021 1:15:00 AM 7.1889 4.2604
9/7/2021 1:30:00 AM 7.1708 4.2857
9/7/2021 1:45:00 AM 7.1548 4.1411
9/7/2021 2:00:00 AM 7.1372 4.1309
9/7/2021 2:15:00 AM 7.1217 4.2492
9/7/2021 2:30:00 AM 7.1064 4.0819
9/7/2021 2:45:00 AM 7.0994 4.0999
9/7/2021 3:00:00 AM 7.0791 4.1023
9/7/2021 3:15:00 AM 7.0676 4.2221
9/7/2021 3:30:00 AM 7.0547 4.2911
9/7/2021 3:45:00 AM 7.0418 4.5704
9/7/2021 4:00:00 AM 7.0303 4.2766
9/7/2021 4:15:00 AM 7.0206 4.4288
9/7/2021 4:30:00 AM 7.0118 4.4641
9/7/2021 4:45:00 AM 7.0021 4.6223
9/7/2021 5:00:00 AM 6.9138 4.5438
9/7/2021 5:15:00 AM 6.8863 4.1354
9/7/2021 5:30:00 AM 6.8992 3.9425
9/7/2021 5:45:00 AM 6.9034 3.9001
9/7/2021 6:00:00 AM 6.9159 4.1021
9/7/2021 6:15:00 AM 6.9216 4.2229
9/7/2021 6:30:00 AM 6.923 4.3008
9/7/2021 6:45:00 AM 6.923 4.4259
9/7/2021 7:00:00 AM 6.9236 4.1575
9/7/2021 7:15:00 AM 6.9233 4.0722
9/7/2021 7:30:00 AM 6.9276 3.9866
9/7/2021 7:45:00 AM 6.928 3.9531
9/7/2021 8:00:00 AM 6.9298 3.8569
9/7/2021 8:15:00 AM 6.9326 3.8289
9/7/2021 8:30:00 AM 6.9331 3.7576
9/7/2021 8:45:00 AM 6.9328 3.7
9/7/2021 9:00:00 AM 6.9421 3.7064
9/7/2021 9:15:00 AM 6.9456 3.7263
9/7/2021 9:30:00 AM 6.9497 3.6595
9/7/2021 9:45:00 AM 6.9565 3.5672
9/7/2021 10:00:00 AM 6.9617 3.5075
9/7/2021 10:15:00 AM 6.9684 3.8837
9/7/2021 10:30:00 AM 6.9761 3.5113
9/7/2021 10:45:00 AM 6.9803 5.6932
9/7/2021 11:00:00 AM 6.9889 3.4586
9/7/2021 11:15:00 AM 6.9984 3.4975
9/7/2021 11:30:00 AM 7.0098 3.4515
9/7/2021 11:45:00 AM 7.0168 3.3
9/7/2021 12:00:00 PM 7.0386 3.2343
9/7/2021 12:15:00 PM 7.0536 3.339
9/7/2021 12:30:00 PM 7.0668 3.311
9/7/2021 12:45:00 PM 7.0823 3.2805
9/7/2021 1:00:00 PM 7.0976 3.1473
9/7/2021 1:15:00 PM 7.1063 3.1215
9/7/2021 1:30:00 PM 7.1187 3.1346
9/7/2021 1:45:00 PM 7.135 3.1662
9/7/2021 2:00:00 PM 7.1541 3.1394
9/7/2021 2:15:00 PM 7.1798 3.1322
9/7/2021 2:30:00 PM 7.203 3.0418
9/7/2021 2:45:00 PM 7.2231 3.0466
9/7/2021 3:00:00 PM 7.2467 3.0395
9/7/2021 3:15:00 PM 7.2695 3.0511
9/7/2021 3:30:00 PM 7.2866 3.0406
9/7/2021 3:45:00 PM 7.3041 3.1352
9/7/2021 4:00:00 PM 7.3279 3.1344
9/7/2021 4:15:00 PM 7.3475 3.0279
9/7/2021 4:30:00 PM 7.3672 2.9744
9/7/2021 4:45:00 PM 7.3836 3.0558
9/7/2021 5:00:00 PM 7.3997 3.0469
9/7/2021 5:15:00 PM 7.416 3.0494
9/7/2021 5:30:00 PM 7.4287 3.0136
9/7/2021 5:45:00 PM 7.4312 3
9/7/2021 6:00:00 PM 7.4491 3.0284
9/7/2021 6:15:00 PM 7.4442 4.4027
9/7/2021 6:30:00 PM 7.4631 3.9624
9/7/2021 6:45:00 PM 7.4822 3.6083
9/7/2021 7:00:00 PM 7.4929 3.456
9/7/2021 7:15:00 PM 7.4966 3.4525
9/7/2021 7:30:00 PM 7.4964 3.623
9/7/2021 7:45:00 PM 7.4931 3.5971
9/7/2021 8:00:00 PM 7.4885 3.7263
9/7/2021 8:15:00 PM 7.4807 3.824
9/7/2021 8:30:00 PM 7.4749 3.9285
9/7/2021 8:45:00 PM 7.469 3.9
9/7/2021 9:00:00 PM 7.4574 3.8976
9/7/2021 9:15:00 PM 7.4467 3.9843
9/7/2021 9:30:00 PM 7.4343 4.1346
9/7/2021 9:45:00 PM 7.4218 4.1029
9/7/2021 10:00:00 PM 7.4097 4.0234
9/7/2021 10:15:00 PM 7.3955 4.1113
9/7/2021 10:30:00 PM 7.3823 4.0768
9/7/2021 10:45:00 PM 7.3665 3.9912
9/7/2021 11:00:00 PM 7.3521 3.9679
9/7/2021 11:15:00 PM 7.3378 3.8871
9/7/2021 11:30:00 PM 7.3198 3.9492
9/7/2021 11:45:00 PM 7.3108 4
9/8/2021 12:00:00 AM 7.2856 3.856
9/8/2021 12:15:00 AM 7.2699 3.9601
9/8/2021 12:30:00 AM 7.254 4.1334
9/8/2021 12:45:00 AM 7.2351 3.9735
9/8/2021 1:00:00 AM 7.2141 3.8562
9/8/2021 1:15:00 AM 7.1967 4.008
9/8/2021 1:30:00 AM 7.1808 3.8993
9/8/2021 1:45:00 AM 7.166 3.8613
9/8/2021 2:00:00 AM 7.1507 4.1774
9/8/2021 2:15:00 AM 7.1362 4.074
9/8/2021 2:30:00 AM 7.1219 4.4474
9/8/2021 2:45:00 AM 7.1162 4.5
9/8/2021 3:00:00 AM 7.0966 4.0477
9/8/2021 3:15:00 AM 7.0853 4.0834
9/8/2021 3:30:00 AM 7.0769 4.5096
9/8/2021 3:45:00 AM 7.0644 5.107
9/8/2021 4:00:00 AM 7.0532 4.806
9/8/2021 4:15:00 AM 7.0449 4.4991
9/8/2021 4:30:00 AM 7.0368 4.7492
9/8/2021 4:45:00 AM 7.0273 4.7035
9/8/2021 5:00:00 AM 6.9307 4.4308
9/8/2021 5:15:00 AM 6.8993 4.1528
9/8/2021 5:30:00 AM 6.9039 4.1231
9/8/2021 5:45:00 AM 6.9062 3.9
9/8/2021 6:00:00 AM 6.9112 4.1099
9/8/2021 6:15:00 AM 6.9141 4.2221
9/8/2021 6:30:00 AM 6.9179 4.247
9/8/2021 6:45:00 AM 6.9176 3.9802
9/8/2021 7:00:00 AM 6.9197 3.8991
9/8/2021 7:15:00 AM 6.9184 3.8366
9/8/2021 7:30:00 AM 6.919 3.6824
9/8/2021 7:45:00 AM 6.9255 3.5629
9/8/2021 8:00:00 AM 6.9307 3.536
9/8/2021 8:15:00 AM 6.935 3.5368
9/8/2021 8:30:00 AM 6.9412 3.444
9/8/2021 8:45:00 AM 6.9398 3.5
9/8/2021 9:00:00 AM 6.9525 3.2933
9/8/2021 9:15:00 AM 6.9609 3.6515
9/8/2021 9:30:00 AM 6.9708 3.5276
9/8/2021 9:45:00 AM 6.9748 3.3427
9/8/2021 10:00:00 AM 6.9823 3.3072
9/8/2021 10:15:00 AM 6.9929 3.3793
9/8/2021 10:30:00 AM 7.0002 3.7701
9/8/2021 10:45:00 AM 7.0094 3.6072
9/8/2021 11:00:00 AM 7.0218 3.7677
9/8/2021 11:15:00 AM 7.032 4.52
9/8/2021 11:30:00 AM 7.0425 4.2552
9/8/2021 11:45:00 AM 7.0476 4.1
9/8/2021 12:00:00 PM 7.0742 3.9995
9/8/2021 12:15:00 PM 7.0903 4.2497
9/8/2021 12:30:00 PM 7.1077 4.3087
9/8/2021 12:45:00 PM 7.1289 4.0229
9/8/2021 1:00:00 PM 7.153 3.8944
9/8/2021 1:15:00 PM 7.1775 4.0008
9/8/2021 1:30:00 PM 7.1985 3.756
9/8/2021 1:45:00 PM 7.2231 3.6413
9/8/2021 2:00:00 PM 7.2522 3.8855
9/8/2021 2:15:00 PM 7.2771 4.2806
9/8/2021 2:30:00 PM 7.3014 4.2717
9/8/2021 2:45:00 PM 7.3269 4.8567
9/8/2021 3:00:00 PM 7.3542 5.334
9/8/2021 3:15:00 PM 7.3851 4.8188
9/8/2021 3:30:00 PM 7.416 4.5634
9/8/2021 3:45:00 PM 7.4455 4.0139
9/8/2021 4:00:00 PM 7.4594 3.8394
9/8/2021 4:15:00 PM 7.4737 3.6892
9/8/2021 4:30:00 PM 7.4881 3.396
9/8/2021 4:45:00 PM 7.5014 3.3061
9/8/2021 5:00:00 PM 7.5087 3.4516
9/8/2021 5:15:00 PM 7.5179 3.3884
9/8/2021 5:30:00 PM 7.5251 3.3541
9/8/2021 5:45:00 PM 7.5264 3.4
9/8/2021 6:00:00 PM 7.5309 3.2851
9/8/2021 6:15:00 PM 7.5311 3.3608
9/8/2021 6:30:00 PM 7.5364 3.4754
9/8/2021 6:45:00 PM 7.5391 3.3923
9/8/2021 7:00:00 PM 7.5345 3.3446
9/8/2021 7:15:00 PM 7.5312 3.2781
9/8/2021 7:30:00 PM 7.5286 3.3179
9/8/2021 7:45:00 PM 7.531 4.4727
9/8/2021 8:00:00 PM 7.5226 4.6037
9/8/2021 8:15:00 PM 7.5244 4.2524
9/8/2021 8:30:00 PM 7.5187 4.0551
9/8/2021 8:45:00 PM 7.5124 4.1
9/8/2021 9:00:00 PM 7.4975 3.9428
9/8/2021 9:15:00 PM 7.4839 3.8228
9/8/2021 9:30:00 PM 7.4688 3.7577
9/8/2021 9:45:00 PM 7.4496 3.7616
9/8/2021 10:00:00 PM 7.4314 3.8107
9/8/2021 10:15:00 PM 7.41 4.0341
9/8/2021 10:30:00 PM 7.3876 3.9785
9/8/2021 10:45:00 PM 7.3668 3.8637
9/8/2021 11:00:00 PM 7.3412 3.8859
9/8/2021 11:15:00 PM 7.3122 3.9307
9/8/2021 11:30:00 PM 7.2903 3.9339
9/8/2021 11:45:00 PM 7.2828 4
9/9/2021 12:00:00 AM 7.2448 4.1356
9/9/2021 12:15:00 AM 7.2197 4.1076
9/9/2021 12:30:00 AM 7.1954 4.0695
9/9/2021 12:45:00 AM 7.174 4.1353
9/9/2021 1:00:00 AM 7.1548 4.2036
9/9/2021 1:15:00 AM 7.1374 4.4122
9/9/2021 1:30:00 AM 7.1175 4.3084
9/9/2021 1:45:00 AM 7.0944 4.2809
9/9/2021 2:00:00 AM 7.0758 4.5314
9/9/2021 2:15:00 AM 7.0586 4.4913
9/9/2021 2:30:00 AM 7.042 4.4018
9/9/2021 2:45:00 AM 7.035 4.4999
9/9/2021 3:00:00 AM 7.0159 4.5201
9/9/2021 3:15:00 AM 7.0046 4.6006
9/9/2021 3:30:00 AM 6.9908 4.4303
9/9/2021 3:45:00 AM 6.9795 4.3728
9/9/2021 4:00:00 AM 6.9693 4.3451
9/9/2021 4:15:00 AM 6.9568 4.4439
9/9/2021 4:30:00 AM 6.9424 4.6909
9/9/2021 4:45:00 AM 6.882 4.6539
9/9/2021 5:00:00 AM 6.877 4.2625
9/9/2021 5:15:00 AM 6.8821 4.2282
9/9/2021 5:30:00 AM 6.881 4.1501
9/9/2021 5:45:00 AM 6.8852 4.1
9/9/2021 6:00:00 AM 6.8783 4.0558
9/9/2021 6:15:00 AM 6.8747 4.0542
9/9/2021 6:30:00 AM 6.8692 4.0512
9/9/2021 6:45:00 AM 6.866 4.0799
9/9/2021 7:00:00 AM 6.8614 4.1656
9/9/2021 7:15:00 AM 6.8557 4.2822
9/9/2021 7:30:00 AM 6.8512 4.2056
9/9/2021 7:45:00 AM 6.8482 4.0874
9/9/2021 8:00:00 AM 6.845 4.0044
9/9/2021 8:15:00 AM 6.8405 3.8638
9/9/2021 8:30:00 AM 6.8399 3.8327
9/9/2021 8:45:00 AM 6.8362 3.8
9/9/2021 9:00:00 AM 6.8365 4.0024
9/9/2021 9:15:00 AM 6.8365 3.7914
9/9/2021 9:30:00 AM 6.8367 3.7449
9/9/2021 9:45:00 AM 6.8366 3.6694
9/9/2021 10:00:00 AM 6.838 3.6389
9/9/2021 10:15:00 AM 6.8397 3.5771
9/9/2021 10:30:00 AM 6.8416 3.5322
9/9/2021 10:45:00 AM 6.844 3.5548
9/9/2021 11:00:00 AM 6.8459 3.6255
9/9/2021 11:15:00 AM 6.852 3.6083
9/9/2021 11:30:00 AM 6.8561 3.5284
9/9/2021 11:45:00 AM 6.8572 3.6
9/9/2021 12:00:00 PM 6.8648 3.5497
9/9/2021 12:15:00 PM 6.8717 3.4885
9/9/2021 12:30:00 PM 6.8788 3.4138
9/9/2021 12:45:00 PM 6.8869 3.3602
9/9/2021 1:00:00 PM 6.8951 3.3735
9/9/2021 1:15:00 PM 6.903 3.5364
9/9/2021 1:30:00 PM 6.9142 3.4199
9/9/2021 1:45:00 PM 6.926 3.4663
9/9/2021 2:00:00 PM 6.9378 3.4572
9/9/2021 2:15:00 PM 6.9498 3.4572
9/9/2021 2:30:00 PM 6.9616 3.4289
9/9/2021 2:45:00 PM 6.976 3.365
9/9/2021 3:00:00 PM 6.9928 3.4238
9/9/2021 3:15:00 PM 7.008 3.4959
9/9/2021 3:30:00 PM 7.0213 3.4367
9/9/2021 3:45:00 PM 7.0335 3.3727
9/9/2021 4:00:00 PM 7.0463 15.3954
9/9/2021 4:15:00 PM 7.0472 3.2562
9/9/2021 4:30:00 PM 7.0523 3.1568
9/9/2021 4:45:00 PM 7.0646 3.185
9/9/2021 5:00:00 PM 7.0806 3.2497
9/9/2021 5:15:00 PM 7.093 3.2044
9/9/2021 5:30:00 PM 7.1062 3.451
9/9/2021 5:45:00 PM 7.1134 3.4
9/9/2021 6:00:00 PM 7.1304 3.1645
9/9/2021 6:15:00 PM 7.1366 3.1086
9/9/2021 6:30:00 PM 7.1437 3.1355
9/9/2021 6:45:00 PM 7.1573 3.1616
9/9/2021 7:00:00 PM 7.1658 3.0976
9/9/2021 7:15:00 PM 7.172 3.1285
9/9/2021 7:30:00 PM 7.1799 3.1822
9/9/2021 7:45:00 PM 7.1848 3.5216
9/9/2021 8:00:00 PM 7.1703 4.5618
9/9/2021 8:15:00 PM 7.1923 4.365
9/9/2021 8:30:00 PM 7.2042 4.3054
9/9/2021 8:45:00 PM 7.2086 4.1
9/9/2021 9:00:00 PM 7.2161 4.0106
9/9/2021 9:15:00 PM 7.2174 4.0692
9/9/2021 9:30:00 PM 7.2166 4.085
9/9/2021 9:45:00 PM 7.2166 4.1201
9/9/2021 10:00:00 PM 7.2167 4.1845
9/9/2021 10:15:00 PM 7.2115 4.0608
9/9/2021 10:30:00 PM 7.2043 3.9651
9/9/2021 10:45:00 PM 7.196 4.0353
9/9/2021 11:00:00 PM 7.1872 4.0489
9/9/2021 11:15:00 PM 7.1765 4.1672
9/9/2021 11:30:00 PM 7.1658 4.2207
9/9/2021 11:45:00 PM 7.1596 4.2
9/10/2021 12:00:00 AM 7.1406 4.047
9/10/2021 12:15:00 AM 7.1257 4.0008
9/10/2021 12:30:00 AM 7.1104 4.0614
9/10/2021 12:45:00 AM 7.0951 4.1149
9/10/2021 1:00:00 AM 7.0801 4.0619
9/10/2021 1:15:00 AM 7.0642 4.2484
9/10/2021 1:30:00 AM 7.0508 4.4279
9/10/2021 1:45:00 AM 7.0364 4.4806
9/10/2021 2:00:00 AM 7.0231 4.5417
9/10/2021 2:15:00 AM 7.0082 4.6293
9/10/2021 2:30:00 AM 6.9953 4.367
9/10/2021 2:45:00 AM 6.9874 4.2999
9/10/2021 3:00:00 AM 6.9718 4.2215
9/10/2021 3:15:00 AM 6.9618 4.3477
9/10/2021 3:30:00 AM 6.9515 4.4757
9/10/2021 3:45:00 AM 6.9426 4.3765
9/10/2021 4:00:00 AM 6.9355 4.3681
9/10/2021 4:15:00 AM 6.9284 4.3873
9/10/2021 4:30:00 AM 6.9221 4.2688
9/10/2021 4:45:00 AM 6.9141 4.1777
9/10/2021 5:00:00 AM 6.8913 4.1801
9/10/2021 5:15:00 AM 6.8802 4.0154
9/10/2021 5:30:00 AM 6.876 3.909
9/10/2021 5:45:00 AM 6.867 4
9/10/2021 6:00:00 AM 6.8349 3.9403
9/10/2021 6:15:00 AM 6.8416 3.8676
9/10/2021 6:30:00 AM 6.8455 3.8995
9/10/2021 6:45:00 AM 6.8465 4.0117
9/10/2021 7:00:00 AM 6.8476 3.9251
9/10/2021 7:15:00 AM 6.8512 3.8915
9/10/2021 7:30:00 AM 6.8541 3.7751
9/10/2021 7:45:00 AM 6.8563 3.6677
9/10/2021 8:00:00 AM 6.8563 3.8391
9/10/2021 8:15:00 AM 6.8592 4.2021
9/10/2021 8:30:00 AM 6.8608 3.9532
9/10/2021 8:45:00 AM 6.8628 3.9
9/10/2021 9:00:00 AM 6.8691 3.6144
9/10/2021 9:15:00 AM 6.8756 3.5319
9/10/2021 9:30:00 AM 6.8836 3.6247
9/10/2021 9:45:00 AM 6.892 3.6725
9/10/2021 10:00:00 AM 6.9011 3.5629
9/10/2021 10:15:00 AM 6.9088 3.3645
9/10/2021 10:30:00 AM 6.9186 3.3309
9/10/2021 10:45:00 AM 6.9294 3.3543
9/10/2021 11:00:00 AM 6.9389 3.5169
9/10/2021 11:15:00 AM 6.9473 3.7469
9/10/2021 11:30:00 AM 6.9592 3.5976
9/10/2021 11:45:00 AM 6.9678 3.5
9/10/2021 12:00:00 PM 6.9879 3.4419
9/10/2021 12:15:00 PM 7.0082 3.4505
9/10/2021 12:30:00 PM 7.0278 3.567
9/10/2021 12:45:00 PM 7.0466 3.5662
9/10/2021 1:00:00 PM 7.0679 3.4531
9/10/2021 1:15:00 PM 7.089 3.3771
9/10/2021 1:30:00 PM 7.1129 3.3419
9/10/2021 1:45:00 PM 7.1391 3.3649
9/10/2021 2:00:00 PM 7.1636 3.3771
9/10/2021 2:15:00 PM 7.1901 3.1813
9/10/2021 2:30:00 PM 7.2134 3.22
9/10/2021 2:45:00 PM 7.2413 3.1147
9/10/2021 3:00:00 PM 7.2689 3.0381
9/10/2021 3:15:00 PM 7.2903 3.0781
9/10/2021 3:30:00 PM 7.3169 3.0829
9/10/2021 3:45:00 PM 7.3431 3.0772
9/10/2021 4:00:00 PM 7.3689 2.9965
9/10/2021 4:15:00 PM 7.3965 2.9292
9/10/2021 4:30:00 PM 7.4249 2.9417
9/10/2021 4:45:00 PM 7.4511 2.9335
9/10/2021 5:00:00 PM 7.4767 2.94
9/10/2021 5:15:00 PM 7.5038 2.9627
9/10/2021 5:30:00 PM 7.5242 2.9746
9/10/2021 5:45:00 PM 7.532 3
9/10/2021 6:00:00 PM 7.5636 3.0427
9/10/2021 6:15:00 PM 7.5782 2.951
9/10/2021 6:30:00 PM 7.5921 2.9306
9/10/2021 6:45:00 PM 7.6037 2.9195
9/10/2021 7:00:00 PM 7.6156 2.8395
9/10/2021 7:15:00 PM 7.6172 2.8681
9/10/2021 7:30:00 PM 7.6199 2.8942
9/10/2021 7:45:00 PM 7.6175 2.9472
9/10/2021 8:00:00 PM 7.612 3.0283
9/10/2021 8:15:00 PM 7.6063 3.1176
9/10/2021 8:30:00 PM 7.5992 3.1091
9/10/2021 8:45:00 PM 7.5992 3.1
9/10/2021 9:00:00 PM 7.5739 4.0969
9/10/2021 9:15:00 PM 7.5829 3.702
9/10/2021 9:30:00 PM 7.579 3.603
9/10/2021 9:45:00 PM 7.5703 3.6493
9/10/2021 10:00:00 PM 7.5604 3.534
9/10/2021 10:15:00 PM 7.5497 3.6165
9/10/2021 10:30:00 PM 7.5332 3.571
9/10/2021 10:45:00 PM 7.5145 3.6781
9/10/2021 11:00:00 PM 7.4972 3.6031
9/10/2021 11:15:00 PM 7.4794 3.5532
9/10/2021 11:30:00 PM 7.4612 3.6314
9/10/2021 11:45:00 PM 7.455 3.7
9/11/2021 12:00:00 AM 7.423 3.4237
9/11/2021 12:15:00 AM 7.4041 3.408
9/11/2021 12:30:00 AM 7.3823 3.6711
9/11/2021 12:45:00 AM 7.3597 3.6849
9/11/2021 1:00:00 AM 7.3382 3.5131
9/11/2021 1:15:00 AM 7.3179 3.4661
9/11/2021 1:30:00 AM 7.2964 3.4982
9/11/2021 1:45:00 AM 7.2754 3.4239
9/11/2021 2:00:00 AM 7.2561 3.4913
9/11/2021 2:15:00 AM 7.2378 3.7008
9/11/2021 2:30:00 AM 7.2207 3.7624
9/11/2021 2:45:00 AM 7.2142 3.7999
9/11/2021 3:00:00 AM 7.1854 3.6307
9/11/2021 3:15:00 AM 7.1683 3.5472
9/11/2021 3:30:00 AM 7.1527 3.6155
9/11/2021 3:45:00 AM 7.1375 3.6003
9/11/2021 4:00:00 AM 7.1233 3.5475
9/11/2021 4:15:00 AM 7.1109 3.6569
9/11/2021 4:30:00 AM 7.0984 3.7201
9/11/2021 4:45:00 AM 7.0367 3.7672
9/11/2021 5:00:00 AM 6.9919 3.4992
9/11/2021 5:15:00 AM 6.9944 3.306
9/11/2021 5:30:00 AM 6.9966 3.2688
9/11/2021 5:45:00 AM 6.9916 3.3
9/11/2021 6:00:00 AM 6.9976 3.5761
9/11/2021 6:15:00 AM 6.9929 3.5788
9/11/2021 6:30:00 AM 6.9897 3.5445
9/11/2021 6:45:00 AM 6.9859 3.4752
9/11/2021 7:00:00 AM 6.9835 3.3724
9/11/2021 7:15:00 AM 6.9799 3.2696
9/11/2021 7:30:00 AM 6.9763 3.3581
9/11/2021 7:45:00 AM 6.9749 3.3601
9/11/2021 8:00:00 AM 6.973 3.4064
9/11/2021 8:15:00 AM 6.9732 3.3843
9/11/2021 8:30:00 AM 6.974 3.293
9/11/2021 8:45:00 AM 6.9748 3.3
9/11/2021 9:00:00 AM 6.9739 3.4563
9/11/2021 9:15:00 AM 6.9758 3.4127
9/11/2021 9:30:00 AM 6.9757 3.1828
9/11/2021 9:45:00 AM 6.9798 3.0788
9/11/2021 10:00:00 AM 6.985 3.064
9/11/2021 10:15:00 AM 6.9854 3.039
9/11/2021 10:30:00 AM 6.9838 2.9475
9/11/2021 10:45:00 AM 6.9814 2.9122
9/11/2021 11:00:00 AM 6.9874 2.8403
9/11/2021 11:15:00 AM 6.9966 2.8918
9/11/2021 11:30:00 AM 7.0062 2.9646
9/11/2021 11:45:00 AM 7.0112 3
9/11/2021 12:00:00 PM 7.0267 3.4211
9/11/2021 12:15:00 PM 7.0382 3.5072
9/11/2021 12:30:00 PM 7.0516 3.589
9/11/2021 12:45:00 PM 7.0677 3.5941
9/11/2021 1:00:00 PM 7.088 3.4522
9/11/2021 1:15:00 PM 7.1035 3.4809
9/11/2021 1:30:00 PM 7.1296 3.5392
9/11/2021 1:45:00 PM 7.1628 3.4246
9/11/2021 2:00:00 PM 7.1967 3.1822
9/11/2021 2:15:00 PM 7.2332 3.0595
9/11/2021 2:30:00 PM 7.2657 3.0079
9/11/2021 2:45:00 PM 7.2946 2.9308
9/11/2021 3:00:00 PM 7.3277 2.9504
9/11/2021 3:15:00 PM 7.3651 2.9407
9/11/2021 3:30:00 PM 7.4026 2.9474
9/11/2021 3:45:00 PM 7.4391 2.8915
9/11/2021 4:00:00 PM 7.4788 2.9328
9/11/2021 4:15:00 PM 7.5239 3.1567
9/11/2021 4:30:00 PM 7.5631 3.1864
9/11/2021 4:45:00 PM 7.5932 3.1581
9/11/2021 5:00:00 PM 7.6215 3.2663
9/11/2021 5:15:00 PM 7.6484 3.442
9/11/2021 5:30:00 PM 7.6813 3.2712
9/11/2021 5:45:00 PM 7.6972 3.2
9/11/2021 6:00:00 PM 7.7443 3.5402
9/11/2021 6:15:00 PM 7.7676 3.4796
9/11/2021 6:30:00 PM 7.7815 3.3943
9/11/2021 6:45:00 PM 7.8068 4.2956
9/11/2021 7:00:00 PM 7.8185 3.6661
9/11/2021 7:15:00 PM 7.8424 3.401
9/11/2021 7:30:00 PM 7.8534 3.3477
9/11/2021 7:45:00 PM 7.8598 3.3247
9/11/2021 8:00:00 PM 7.8594 3.3541
9/11/2021 8:15:00 PM 7.8627 3.3001
9/11/2021 8:30:00 PM 7.8611 3.4772
9/11/2021 8:45:00 PM 7.861 3.7001
9/11/2021 9:00:00 PM 7.8513 3.569
9/11/2021 9:15:00 PM 7.8424 3.8032
9/11/2021 9:30:00 PM 7.8311 3.9761
9/11/2021 9:45:00 PM 7.8198 3.8858
9/11/2021 10:00:00 PM 7.8094 3.8359
9/11/2021 10:15:00 PM 7.7976 3.8149
9/11/2021 10:30:00 PM 7.7804 3.5385
9/11/2021 10:45:00 PM 7.7656 3.5247
9/11/2021 11:00:00 PM 7.7468 3.6793
9/11/2021 11:15:00 PM 7.7248 4.0531
9/11/2021 11:30:00 PM 7.7005 3.713
9/11/2021 11:45:00 PM 7.6874 3.6
9/12/2021 12:00:00 AM 7.6483 3.5344
9/12/2021 12:15:00 AM 7.6258 3.5495
9/12/2021 12:30:00 AM 7.6015 3.753
9/12/2021 12:45:00 AM 7.574 3.7545
9/12/2021 1:00:00 AM 7.5414 3.9438
9/12/2021 1:15:00 AM 7.5096 4.2751
9/12/2021 1:30:00 AM 7.4772 4.3022
9/12/2021 1:45:00 AM 7.448 4.015
9/12/2021 2:00:00 AM 7.4167 3.8126
9/12/2021 2:15:00 AM 7.3881 3.7609
9/12/2021 2:30:00 AM 7.3594 4.0114
9/12/2021 2:45:00 AM 7.3444 3.9
9/12/2021 3:00:00 AM 7.3035 4.0486
9/12/2021 3:15:00 AM 7.2777 4.1971
9/12/2021 3:30:00 AM 7.2547 4.5848
9/12/2021 3:45:00 AM 7.2299 4.5023
9/12/2021 4:00:00 AM 7.1856 4.0657
9/12/2021 4:15:00 AM 7.1256 4.1247
9/12/2021 4:30:00 AM 7.0968 4.1218
9/12/2021 4:45:00 AM 7.0873 3.902
9/12/2021 5:00:00 AM 7.0779 3.733
9/12/2021 5:15:00 AM 7.0652 3.6223
9/12/2021 5:30:00 AM 7.0511 3.7711
9/12/2021 5:45:00 AM 7.0448 4
9/12/2021 6:00:00 AM 7.0283 3.698
9/12/2021 6:15:00 AM 7.018 3.4765
9/12/2021 6:30:00 AM 7.0028 3.2896
9/12/2021 6:45:00 AM 6.9956 3.2125
9/12/2021 7:00:00 AM 6.9882 3.1714
9/12/2021 7:15:00 AM 6.9808 3.2112
9/12/2021 7:30:00 AM 6.9709 3.2554
9/12/2021 7:45:00 AM 6.9639 3.2588
9/12/2021 8:00:00 AM 6.9616 3.289
9/12/2021 8:15:00 AM 6.9604 3.2308
9/12/2021 8:30:00 AM 6.9577 3.111
9/12/2021 8:45:00 AM 6.9566 3
9/12/2021 9:00:00 AM 6.9579 3.0362
9/12/2021 9:15:00 AM 6.9574 3.048
9/12/2021 9:30:00 AM 6.9592 3.0986
9/12/2021 9:45:00 AM 6.9645 3.0175
9/12/2021 10:00:00 AM 6.9695 3.0207
9/12/2021 10:15:00 AM 6.9735 3.053
9/12/2021 10:30:00 AM 6.9837 3.1092
9/12/2021 10:45:00 AM 6.9937 3.2717
9/12/2021 11:00:00 AM 7.0045 3.1945
9/12/2021 11:15:00 AM 7.0171 3.1442
9/12/2021 11:30:00 AM 7.0339 3.2089
9/12/2021 11:45:00 AM 7.0434 3.3
9/12/2021 12:00:00 PM 7.0657 3.184
9/12/2021 12:15:00 PM 7.0828 3.0906
9/12/2021 12:30:00 PM 7.0983 3.1707
9/12/2021 12:45:00 PM 7.1096 3.1475
9/12/2021 1:00:00 PM 7.1202 3.2049
9/12/2021 1:15:00 PM 7.1337 3.1202
9/12/2021 1:30:00 PM 7.1522 3.1107
9/12/2021 1:45:00 PM 7.1747 3.0004
9/12/2021 2:00:00 PM 7.2033 2.9835
9/12/2021 2:15:00 PM 7.2278 3.0524
9/12/2021 2:30:00 PM 7.2501 2.9827
9/12/2021 2:45:00 PM 7.2707 3.095
9/12/2021 3:00:00 PM 7.2871 3.1114
9/12/2021 3:15:00 PM 7.311 2.9248
9/12/2021 3:30:00 PM 7.3351 2.9466
9/12/2021 3:45:00 PM 7.3614 2.984
9/12/2021 4:00:00 PM 7.394 2.9211
9/12/2021 4:15:00 PM 7.4373 2.8582
9/12/2021 4:30:00 PM 7.4774 2.8539
9/12/2021 4:45:00 PM 7.5191 2.8524
9/12/2021 5:00:00 PM 7.5587 2.8108
9/12/2021 5:15:00 PM 7.6048 2.6534
9/12/2021 5:30:00 PM 7.6437 2.6359
9/12/2021 5:45:00 PM 7.6566 2.7
9/12/2021 6:00:00 PM 7.6824 2.6417
9/12/2021 6:15:00 PM 7.7007 2.6516
9/12/2021 6:30:00 PM 7.7151 3.7658
9/12/2021 6:45:00 PM 7.728 3.4721
9/12/2021 7:00:00 PM 7.7523 3.1399
9/12/2021 7:15:00 PM 7.7678 3.046
9/12/2021 7:30:00 PM 7.7818 2.9786
9/12/2021 7:45:00 PM 7.79 3.1025
9/12/2021 8:00:00 PM 7.795 3.1332
9/12/2021 8:15:00 PM 7.7968 3.3535
9/12/2021 8:30:00 PM 7.7922 3.4806
9/12/2021 8:45:00 PM 7.7966 3.4
9/12/2021 9:00:00 PM 7.7878 3.301
9/12/2021 9:15:00 PM 7.7813 3.5996
9/12/2021 9:30:00 PM 7.7687 3.7533
9/12/2021 9:45:00 PM 7.7572 3.4721
9/12/2021 10:00:00 PM 7.7486 3.1816
9/12/2021 10:15:00 PM 7.7314 3.3096
9/12/2021 10:30:00 PM 7.7104 3.3561
9/12/2021 10:45:00 PM 7.6867 3.3535
9/12/2021 11:00:00 PM 7.6649 3.3437
9/12/2021 11:15:00 PM 7.6444 3.495
9/12/2021 11:30:00 PM 7.6229 3.7583
9/12/2021 11:45:00 PM 7.6132 3.5
9/13/2021 12:00:00 AM 7.5734 3.5094
9/13/2021 12:15:00 AM 7.5494 3.3436
9/13/2021 12:30:00 AM 7.5243 3.3132
9/13/2021 12:45:00 AM 7.4971 3.2926
9/13/2021 1:00:00 AM 7.4703 3.5322
9/13/2021 1:15:00 AM 7.4436 3.5875
9/13/2021 1:30:00 AM 7.4145 3.5004
9/13/2021 1:45:00 AM 7.3855 3.724
9/13/2021 2:00:00 AM 7.3574 3.6676
9/13/2021 2:15:00 AM 7.3342 3.6987
9/13/2021 2:30:00 AM 7.3142 3.6741
9/13/2021 2:45:00 AM 7.3024 3.5999
9/13/2021 3:00:00 AM 7.2722 3.945
9/13/2021 3:15:00 AM 7.2495 3.6641
9/13/2021 3:30:00 AM 7.2254 3.6771
9/13/2021 3:45:00 AM 7.2052 3.4598
9/13/2021 4:00:00 AM 7.1848 3.3616
9/13/2021 4:15:00 AM 7.1676 3.2297
9/13/2021 4:30:00 AM 7.151 3.3977
9/13/2021 4:45:00 AM 7.1362 3.4264
9/13/2021 5:00:00 AM 7.1197 3.4429
9/13/2021 5:15:00 AM 7.1044 3.3719
9/13/2021 5:30:00 AM 7.0251 3.3737
9/13/2021 5:45:00 AM 7.0098 3.2
9/13/2021 6:00:00 AM 6.983 3.0328
9/13/2021 6:15:00 AM 6.9778 3.0629
9/13/2021 6:30:00 AM 6.9714 3.2042
9/13/2021 6:45:00 AM 6.9654 3.2005
9/13/2021 7:00:00 AM 6.9598 3.0074
9/13/2021 7:15:00 AM 6.9538 2.9026
9/13/2021 7:30:00 AM 6.9478 2.8298
9/13/2021 7:45:00 AM 6.9458 2.896
9/13/2021 8:00:00 AM 6.9403 2.8734
9/13/2021 8:15:00 AM 6.9384 2.9034
9/13/2021 8:30:00 AM 6.9379 2.9645
9/13/2021 8:45:00 AM 6.9342 3.1
9/13/2021 9:00:00 AM 6.9371 2.9422
9/13/2021 9:15:00 AM 6.9387 2.9531
9/13/2021 9:30:00 AM 6.9488 2.9711
9/13/2021 9:45:00 AM 6.9532 2.7281
9/13/2021 10:00:00 AM 6.9582 2.7334
9/13/2021 10:15:00 AM 6.9623 2.7381
9/13/2021 10:30:00 AM 6.9688 2.7425
9/13/2021 10:45:00 AM 6.9749 2.7549
9/13/2021 11:00:00 AM 6.9862 2.7527
9/13/2021 11:15:00 AM 6.9988 2.769
9/13/2021 11:30:00 AM 7.0131 2.7808
9/13/2021 11:45:00 AM 7.021 2.7
9/13/2021 12:00:00 PM 7.0429 2.7348
9/13/2021 12:15:00 PM 7.0558 2.6914
9/13/2021 12:30:00 PM 7.0752 2.7351
9/13/2021 12:45:00 PM 7.0957 2.8888
9/13/2021 1:00:00 PM 7.1155 2.7309
9/13/2021 1:15:00 PM 7.1435 2.6442
9/13/2021 1:30:00 PM 7.1729 2.6708
9/13/2021 1:45:00 PM 7.2085 2.6972
9/13/2021 2:00:00 PM 7.2423 2.6553
9/13/2021 2:15:00 PM 7.2722 2.6634
9/13/2021 2:30:00 PM 7.3142 2.6449
9/13/2021 2:45:00 PM 7.3532 2.5891
9/13/2021 3:00:00 PM 7.3915 2.6415
9/13/2021 3:15:00 PM 7.4358 2.6087
9/13/2021 3:30:00 PM 7.4741 2.6473
9/13/2021 3:45:00 PM 7.5295 2.6132
9/13/2021 4:00:00 PM 7.5657 2.5362
9/13/2021 4:15:00 PM 7.6019 2.5699
9/13/2021 4:30:00 PM 7.6415 2.5355
9/13/2021 4:45:00 PM 7.6894 2.4832
9/13/2021 5:00:00 PM 7.7323 2.5103
9/13/2021 5:15:00 PM 7.7656 2.5239
9/13/2021 5:30:00 PM 7.8065 2.5352
9/13/2021 5:45:00 PM 7.8288 2.5
9/13/2021 6:00:00 PM 7.8802 2.7818
9/13/2021 6:15:00 PM 7.878 3.6872
9/13/2021 6:30:00 PM 7.9188 3.121
9/13/2021 6:45:00 PM 7.9576 2.925
9/13/2021 7:00:00 PM 7.9712 2.8443
9/13/2021 7:15:00 PM 7.9803 2.8566
9/13/2021 7:30:00 PM 8.0023 2.8831
9/13/2021 7:45:00 PM 8.0165 2.948
9/13/2021 8:00:00 PM 8.0223 2.9301
9/13/2021 8:15:00 PM 8.0287 3.0827
9/13/2021 8:30:00 PM 8.0319 3.0916
9/13/2021 8:45:00 PM 8.0262 3.1
9/13/2021 9:00:00 PM 8.0375 3.086
9/13/2021 9:15:00 PM 8.0456 2.9557
9/13/2021 9:30:00 PM 8.0426 3.0824
9/13/2021 9:45:00 PM 8.0443 3.0601
9/13/2021 10:00:00 PM 8.0466 3.1628
9/13/2021 10:15:00 PM 8.0423 3.0392
9/13/2021 10:30:00 PM 8.0408 2.9539
9/13/2021 10:45:00 PM 8.0349 3.0627
9/13/2021 11:00:00 PM 8.0298 2.9768
9/13/2021 11:15:00 PM 8.0195 3.0917
9/13/2021 11:30:00 PM 8.0086 3.2564
9/13/2021 11:45:00 PM 7.9982 3.3
9/14/2021 12:00:00 AM 7.98 3.0591
9/14/2021 12:15:00 AM 7.9675 3.1537
9/14/2021 12:30:00 AM 7.9484 3.2149
9/14/2021 12:45:00 AM 7.9247 3.1607
9/14/2021 1:00:00 AM 7.8989 3.1088
9/14/2021 1:15:00 AM 7.8737 3.1573
9/14/2021 1:30:00 AM 7.8382 3.182
9/14/2021 1:45:00 AM 7.8053 3.3346
9/14/2021 2:00:00 AM 7.7738 3.3599
9/14/2021 2:15:00 AM 7.7466 3.3192
9/14/2021 2:30:00 AM 7.7126 3.3383
9/14/2021 2:45:00 AM 7.6916 3.3999
9/14/2021 3:00:00 AM 7.6326 3.1762
9/14/2021 3:15:00 AM 7.5987 3.1804
9/14/2021 3:30:00 AM 7.5622 3.2289
9/14/2021 3:45:00 AM 7.5284 3.335
9/14/2021 4:00:00 AM 7.505 8.2018
9/14/2021 4:15:00 AM 7.4739 5.5474
9/14/2021 4:30:00 AM 7.4342 3.6078
9/14/2021 4:45:00 AM 7.4031 3.5044
9/14/2021 5:00:00 AM 7.3708 3.3922
9/14/2021 5:15:00 AM 7.3421 3.2625
9/14/2021 5:30:00 AM 7.3157 3.2773
9/14/2021 5:45:00 AM 7.3052 3.3999
9/14/2021 6:00:00 AM 7.2246 3.2684
9/14/2021 6:15:00 AM 7.2023 3.1648
9/14/2021 6:30:00 AM 7.1862 3.2447
9/14/2021 6:45:00 AM 7.1717 3.2276
9/14/2021 7:00:00 AM 7.1571 3.4055
9/14/2021 7:15:00 AM 7.1417 3.4602
9/14/2021 7:30:00 AM 7.1284 3.4313
9/14/2021 7:45:00 AM 7.1153 3.354
9/14/2021 8:00:00 AM 7.1054 3.3567
9/14/2021 8:15:00 AM 7.0954 3.3664
9/14/2021 8:30:00 AM 7.0883 3.4377
9/14/2021 8:45:00 AM 7.084 3.5
9/14/2021 9:00:00 AM 7.0751 3.4514
9/14/2021 9:15:00 AM 7.0761 3.5279
9/14/2021 9:30:00 AM 7.0723 3.2811
9/14/2021 9:45:00 AM 7.0704 3.2384
9/14/2021 10:00:00 AM 7.072 3.2393
9/14/2021 10:15:00 AM 7.0737 3.3619
9/14/2021 10:30:00 AM 7.0771 3.4727
9/14/2021 10:45:00 AM 7.0813 3.4513
9/14/2021 11:00:00 AM 7.0841 3.5987
9/14/2021 11:15:00 AM 7.091 3.6201
9/14/2021 11:30:00 AM 7.0978 3.776
9/14/2021 11:45:00 AM 7.1036 3.8
9/14/2021 12:00:00 PM 7.1125 3.9152
9/14/2021 12:15:00 PM 7.1267 4.2541
9/14/2021 12:30:00 PM 7.1465 4.4617
9/14/2021 12:45:00 PM 7.1748 4.1561
9/14/2021 1:00:00 PM 7.2024 4.1817
9/14/2021 1:15:00 PM 7.2265 4.0859
9/14/2021 1:30:00 PM 7.2442 4.0688
9/14/2021 1:45:00 PM 7.261 3.8511
9/14/2021 2:00:00 PM 7.2829 3.8451
9/14/2021 2:15:00 PM 7.3178 3.7651
9/14/2021 2:30:00 PM 7.3583 3.8523
9/14/2021 2:45:00 PM 7.397 3.8084
9/14/2021 3:00:00 PM 7.4397 4.188
9/14/2021 3:15:00 PM 7.4819 4.1531
9/14/2021 3:30:00 PM 7.5269 4.1046
9/14/2021 3:45:00 PM 7.5742 3.8877
9/14/2021 4:00:00 PM 7.6505 11.9305
9/14/2021 4:15:00 PM 7.7647 3.3967
9/14/2021 4:30:00 PM 7.826 3.3011
9/14/2021 4:45:00 PM 7.8658 3.1704
9/14/2021 5:00:00 PM 7.9102 3.1423
9/14/2021 5:15:00 PM 7.9517 2.9951
9/14/2021 5:30:00 PM 7.9808 2.8584
9/14/2021 5:45:00 PM 7.9912 2.9
9/14/2021 6:00:00 PM 8.0415 3.7491
9/14/2021 6:15:00 PM 8.0293 3.8414
9/14/2021 6:30:00 PM 8.0781 3.3051
9/14/2021 6:45:00 PM 8.1017 3.1796
9/14/2021 7:00:00 PM 8.1245 3.0945
9/14/2021 7:15:00 PM 8.1445 3.0841
9/14/2021 7:30:00 PM 8.1547 3.1035
9/14/2021 7:45:00 PM 8.1675 3.1374
9/14/2021 8:00:00 PM 8.1808 3.1123
9/14/2021 8:15:00 PM 8.1946 3.147
9/14/2021 8:30:00 PM 8.1981 3.0729
9/14/2021 8:45:00 PM 8.2054 3.1
9/14/2021 9:00:00 PM 8.2147 2.9907
9/14/2021 9:15:00 PM 8.2241 3.0354
9/14/2021 9:30:00 PM 8.2132 3.1591
9/14/2021 9:45:00 PM 8.212 3.0462
9/14/2021 10:00:00 PM 8.2005 3.012
9/14/2021 10:15:00 PM 8.1853 3.0519
9/14/2021 10:30:00 PM 8.1715 3.0459
9/14/2021 10:45:00 PM 8.1573 3.0333
9/14/2021 11:00:00 PM 8.1422 3.0088
9/14/2021 11:15:00 PM 8.1262 3.1174
9/14/2021 11:30:00 PM 8.1134 3.2047
9/14/2021 11:45:00 PM 8.1102 3.1
9/15/2021 12:00:00 AM 8.0838 3.2346
9/15/2021 12:15:00 AM 8.0672 3.2531
9/15/2021 12:30:00 AM 8.0495 3.1498
9/15/2021 12:45:00 AM 8.0267 3.1626
9/15/2021 1:00:00 AM 7.9999 3.3606
9/15/2021 1:15:00 AM 7.9745 3.3374
9/15/2021 1:30:00 AM 7.9461 3.2553
9/15/2021 1:45:00 AM 7.9164 3.2932
9/15/2021 2:00:00 AM 7.8744 3.4149
9/15/2021 2:15:00 AM 7.8345 3.437
9/15/2021 2:30:00 AM 7.8001 3.4178
9/15/2021 2:45:00 AM 7.777 3.4
9/15/2021 3:00:00 AM 7.7199 3.332
9/15/2021 3:15:00 AM 7.673 3.3254
9/15/2021 3:30:00 AM 7.6295 3.4119
9/15/2021 3:45:00 AM 7.5957 3.2872
9/15/2021 4:00:00 AM 7.5685 3.3163
9/15/2021 4:15:00 AM 7.5398 3.3588
9/15/2021 4:30:00 AM 7.509 3.123
9/15/2021 4:45:00 AM 7.4766 3.0597
9/15/2021 5:00:00 AM 7.447 3.2492
9/15/2021 5:15:00 AM 7.4139 3.159
9/15/2021 5:30:00 AM 7.3825 3.1341
9/15/2021 5:45:00 AM 7.3724 3.2
9/15/2021 6:00:00 AM 7.3144 2.7892
9/15/2021 6:15:00 AM 7.2842 2.7707
9/15/2021 6:30:00 AM 7.2584 2.7947
9/15/2021 6:45:00 AM 7.2359 2.844
9/15/2021 7:00:00 AM 7.2165 2.7375
9/15/2021 7:15:00 AM 7.1981 2.7464
9/15/2021 7:30:00 AM 7.1813 2.6782
9/15/2021 7:45:00 AM 7.1666 2.6812
9/15/2021 8:00:00 AM 7.1547 2.6546
9/15/2021 8:15:00 AM 7.144 2.6633
9/15/2021 8:30:00 AM 7.1369 2.7423
9/15/2021 8:45:00 AM 7.133 2.8
9/15/2021 9:00:00 AM 7.1246 2.6351
9/15/2021 9:15:00 AM 7.1206 2.6517
9/15/2021 9:30:00 AM 7.1213 2.7967
9/15/2021 9:45:00 AM 7.1238 2.6545
9/15/2021 10:00:00 AM 7.132 2.7349
9/15/2021 10:15:00 AM 7.1395 2.7569
9/15/2021 10:30:00 AM 7.1485 2.9472
9/15/2021 10:45:00 AM 7.1565 2.9331
9/15/2021 11:00:00 AM 7.165 2.8731
9/15/2021 11:15:00 AM 7.1755 2.9311
9/15/2021 11:30:00 AM 7.1874 2.8743
9/15/2021 11:45:00 AM 7.1932 2.9
9/15/2021 12:00:00 PM 7.2155 2.8518
9/15/2021 12:15:00 PM 7.2325 2.7388
9/15/2021 12:30:00 PM 7.256 2.8557
9/15/2021 12:45:00 PM 7.2786 3.0163
9/15/2021 1:00:00 PM 7.3053 3.2774
9/15/2021 1:15:00 PM 7.3279 5.6329
9/15/2021 1:30:00 PM 7.3435 7.3258
9/15/2021 1:45:00 PM 7.3528 4.7413
9/15/2021 2:00:00 PM 7.3623 3.4013
9/15/2021 2:15:00 PM 7.3732 3.0444
9/15/2021 2:30:00 PM 7.3886 2.7115
9/15/2021 2:45:00 PM 7.4097 2.5625
9/15/2021 3:00:00 PM 7.4446 3.0177
9/15/2021 3:15:00 PM 7.4872 3.1431
9/15/2021 3:30:00 PM 7.5217 2.9266
9/15/2021 3:45:00 PM 7.5624 2.7771
9/15/2021 4:00:00 PM 7.6136 2.7364
9/15/2021 4:15:00 PM 7.6624 2.9159
9/15/2021 4:30:00 PM 7.6982 2.8686
9/15/2021 4:45:00 PM 7.7205 4.6193
9/15/2021 5:00:00 PM 7.7236 181.1863
9/15/2021 5:15:00 PM 7.7216 350.1681
9/15/2021 5:30:00 PM 7.7193 360.0624
9/15/2021 5:45:00 PM 7.7196 342.3
9/15/2021 6:00:00 PM 7.7584 275.4709
9/15/2021 6:15:00 PM 7.7826 250.6896
9/15/2021 6:30:00 PM 7.7992 222.7722
9/15/2021 6:45:00 PM 7.8118 197.6446
9/15/2021 7:00:00 PM 7.8222 81.1212
9/15/2021 7:15:00 PM 7.8171 27.466
9/15/2021 7:30:00 PM 7.7664 18.1842
9/15/2021 7:45:00 PM 7.7524 16.2637
9/15/2021 8:00:00 PM 7.7465 15.2189
9/15/2021 8:15:00 PM 7.7332 15.3206
9/15/2021 8:30:00 PM 7.7169 15.6419
9/15/2021 8:45:00 PM 7.7126 16.1999
9/15/2021 9:00:00 PM 7.6664 17.2481
9/15/2021 9:15:00 PM 7.6411 17.3887
9/15/2021 9:30:00 PM 7.6142 17.2751
9/15/2021 9:45:00 PM 7.5642 16.9406
9/15/2021 10:00:00 PM 7.5483 17.5745
9/15/2021 10:15:00 PM 7.5244 17.1571
9/15/2021 10:30:00 PM 7.4941 16.6548
9/15/2021 10:45:00 PM 7.4679 16.8003
9/15/2021 11:00:00 PM 7.4401 16.2778
9/15/2021 11:15:00 PM 7.4129 15.7717
9/15/2021 11:30:00 PM 7.3896 15.3271
9/15/2021 11:45:00 PM 7.3738 15.1001
9/16/2021 12:00:00 AM 7.3384 14.6748
9/16/2021 12:15:00 AM 7.3265 14.638
9/16/2021 12:30:00 AM 7.3107 14.1433
9/16/2021 12:45:00 AM 7.2914 13.6418
9/16/2021 1:00:00 AM 7.267 12.745
9/16/2021 1:15:00 AM 7.2474 12.2765
9/16/2021 1:30:00 AM 7.2309 11.9777
9/16/2021 1:45:00 AM 7.2158 11.6789
9/16/2021 2:00:00 AM 7.2012 11.4412
9/16/2021 2:15:00 AM 7.1888 11.5544
9/16/2021 2:30:00 AM 7.1749 11.4547
9/16/2021 2:45:00 AM 7.1708 11.3996
9/16/2021 3:00:00 AM 7.1488 11.8142
9/16/2021 3:15:00 AM 7.1293 12.6975
9/16/2021 3:30:00 AM 7.105 13.3613
9/16/2021 3:45:00 AM 7.0906 13.2262
9/16/2021 4:00:00 AM 7.0779 13.3208
9/16/2021 4:15:00 AM 7.0657 13.3452
9/16/2021 4:30:00 AM 7.0549 13.3214
9/16/2021 4:45:00 AM 7.0397 13.2466
9/16/2021 5:00:00 AM 7.0258 12.8804
9/16/2021 5:15:00 AM 7.0061 12.4558
9/16/2021 5:30:00 AM 6.9883 11.9587
9/16/2021 5:45:00 AM 6.9846 11.8
9/16/2021 6:00:00 AM 6.9677 11.591
9/16/2021 6:15:00 AM 6.9605 11.3818
9/16/2021 6:30:00 AM 6.9558 11.0787
9/16/2021 6:45:00 AM 6.9476 10.5894
9/16/2021 7:00:00 AM 6.9393 16.5331
9/16/2021 7:15:00 AM 6.9243 9.8681
9/16/2021 7:30:00 AM 6.9122 9.5629
9/16/2021 7:45:00 AM 6.9071 9.1392
9/16/2021 8:00:00 AM 6.9074 8.6009
9/16/2021 8:15:00 AM 6.9044 8.2927
9/16/2021 8:30:00 AM 6.9062 8.1859
9/16/2021 8:45:00 AM 6.909 8.1
9/16/2021 9:00:00 AM 6.9109 7.5235
9/16/2021 9:15:00 AM 6.916 7.2006
9/16/2021 9:30:00 AM 6.921 7.052
9/16/2021 9:45:00 AM 6.9245 6.904
9/16/2021 10:00:00 AM 6.9286 6.621
9/16/2021 10:15:00 AM 6.9358 6.3971
9/16/2021 10:30:00 AM 6.9426 6.1416
9/16/2021 10:45:00 AM 6.9536 6.0378
9/16/2021 11:00:00 AM 6.9591 6.16
9/16/2021 11:15:00 AM 6.9647 5.9913
9/16/2021 11:30:00 AM 6.9725 5.9068
9/16/2021 11:45:00 AM 6.9776 5.8
9/16/2021 12:00:00 PM 6.9879 5.688
9/16/2021 12:15:00 PM 6.9905 5.8169
9/16/2021 12:30:00 PM 6.9946 5.8276
9/16/2021 12:45:00 PM 7.002 5.73
9/16/2021 1:00:00 PM 7.0152 5.5464
9/16/2021 1:15:00 PM 7.0357 5.41
9/16/2021 1:30:00 PM 7.0528 5.2565
9/16/2021 1:45:00 PM 7.0702 5.1567
9/16/2021 2:00:00 PM 7.0908 5.1624
9/16/2021 2:15:00 PM 7.11 5.0654
9/16/2021 2:30:00 PM 7.1293 4.9777
9/16/2021 2:45:00 PM 7.1509 4.9336
9/16/2021 3:00:00 PM 7.1765 4.9311
9/16/2021 3:15:00 PM 7.1978 4.8037
9/16/2021 3:30:00 PM 7.2203 4.7388
9/16/2021 3:45:00 PM 7.24 4.7513
9/16/2021 4:00:00 PM 7.2596 4.7752
9/16/2021 4:15:00 PM 7.277 4.8459
9/16/2021 4:30:00 PM 7.2869 4.9459
9/16/2021 4:45:00 PM 7.2949 4.9519
9/16/2021 5:00:00 PM 7.2964 4.8337
9/16/2021 5:15:00 PM 7.3009 4.9194
9/16/2021 5:30:00 PM 7.3046 4.9269
9/16/2021 5:45:00 PM 7.3094 5
9/16/2021 6:00:00 PM 7.3099 4.982
9/16/2021 6:15:00 PM 7.3088 4.9293
9/16/2021 6:30:00 PM 7.3076 4.9944
9/16/2021 6:45:00 PM 7.3285 6.3333
9/16/2021 7:00:00 PM 7.2941 5.4811
9/16/2021 7:15:00 PM 7.2942 5.2924
9/16/2021 7:30:00 PM 7.2942 5.314
9/16/2021 7:45:00 PM 7.2942 5.2699
9/16/2021 8:00:00 PM 7.2946 5.1851
9/16/2021 8:15:00 PM 7.294 5.3765
9/16/2021 8:30:00 PM 7.2942 5.3008
9/16/2021 8:45:00 PM 7.2954 5.4
9/16/2021 9:00:00 PM 7.2866 5.6231
9/16/2021 9:15:00 PM 7.284 5.4493
9/16/2021 9:30:00 PM 7.2801 5.5498
9/16/2021 9:45:00 PM 7.2763 5.5692
9/16/2021 10:00:00 PM 7.2962 5.6181
9/16/2021 10:15:00 PM 7.2989 5.6939
9/16/2021 10:30:00 PM 7.2986 5.5955
9/16/2021 10:45:00 PM 7.2943 5.5971
9/16/2021 11:00:00 PM 7.2894 5.5356
9/16/2021 11:15:00 PM 7.2834 5.5754
9/16/2021 11:30:00 PM 7.2724 5.7287
9/16/2021 11:45:00 PM 7.266 5.8
9/17/2021 12:00:00 AM 7.2477 5.7839
9/17/2021 12:15:00 AM 7.2372 5.8326
9/17/2021 12:30:00 AM 7.2252 5.9206
9/17/2021 12:45:00 AM 7.2115 6.2655
9/17/2021 1:00:00 AM 7.2024 6.227
9/17/2021 1:15:00 AM 7.1942 6.0724
9/17/2021 1:30:00 AM 7.1869 6.258
9/17/2021 1:45:00 AM 7.1772 9.0156
9/17/2021 2:00:00 AM 7.1672 6.5002
9/17/2021 2:15:00 AM 7.1593 6.5328
9/17/2021 2:30:00 AM 7.1506 6.7777
9/17/2021 2:45:00 AM 7.1456 6.9999
9/17/2021 3:00:00 AM 7.1312 7.0361
9/17/2021 3:15:00 AM 7.1223 7.0562
9/17/2021 3:30:00 AM 7.1131 7.3925
9/17/2021 3:45:00 AM 7.1014 7.8129
9/17/2021 4:00:00 AM 7.0876 7.7115
9/17/2021 4:15:00 AM 7.0769 7.9918
9/17/2021 4:30:00 AM 7.068 8.1469
9/17/2021 4:45:00 AM 7.0554 8.4479
9/17/2021 5:00:00 AM 7.0466 8.6401
9/17/2021 5:15:00 AM 7.0392 8.5588
9/17/2021 5:30:00 AM 7.0307 8.4044
9/17/2021 5:45:00 AM 7.0294 8.4
9/17/2021 6:00:00 AM 7.0102 8.1027
9/17/2021 6:15:00 AM 6.9888 8.028
9/17/2021 6:30:00 AM 6.9676 8.1271
9/17/2021 6:45:00 AM 6.9533 8.0842
9/17/2021 7:00:00 AM 6.9477 7.9453
9/17/2021 7:15:00 AM 6.9476 7.7727
9/17/2021 7:30:00 AM 6.9476 7.5586
9/17/2021 7:45:00 AM 6.9452 7.419
9/17/2021 8:00:00 AM 6.945 7.2352
9/17/2021 8:15:00 AM 6.9472 7.1189
9/17/2021 8:30:00 AM 6.9461 6.9337
9/17/2021 8:45:00 AM 6.9482 6.9
9/17/2021 9:00:00 AM 6.9494 6.6999
9/17/2021 9:15:00 AM 6.952 6.8109
9/17/2021 9:30:00 AM 6.9486 6.6719
9/17/2021 9:45:00 AM 6.9465 6.8604
9/17/2021 10:00:00 AM 6.9458 6.9067
9/17/2021 10:15:00 AM 6.9425 6.8922
9/17/2021 10:30:00 AM 6.9404 6.9209
9/17/2021 10:45:00 AM 6.9347 7.0738
9/17/2021 11:00:00 AM 6.9282 7.3142
9/17/2021 11:15:00 AM 6.9252 7.5885
9/17/2021 11:30:00 AM 6.921 7.739
9/17/2021 11:45:00 AM 6.9188 7.8
9/17/2021 12:00:00 PM 6.9114 8.0481
9/17/2021 12:15:00 PM 6.9083 8.2756
9/17/2021 12:30:00 PM 6.905 8.3626
9/17/2021 12:45:00 PM 6.9005 8.3485
9/17/2021 1:00:00 PM 6.8954 8.5014
9/17/2021 1:15:00 PM 6.8917 8.2622
9/17/2021 1:30:00 PM 6.8878 8.2497
9/17/2021 1:45:00 PM 6.885 8.3163
9/17/2021 2:00:00 PM 6.8851 8.352
9/17/2021 2:15:00 PM 6.8849 8.4768
9/17/2021 2:30:00 PM 6.881 8.5285
9/17/2021 2:45:00 PM 6.8764 8.4642
9/17/2021 3:00:00 PM 6.8777 8.4128
9/17/2021 3:15:00 PM 6.8835 8.4189
9/17/2021 3:30:00 PM 6.8923 8.2527
9/17/2021 3:45:00 PM 6.8965 8.2312
9/17/2021 4:00:00 PM 6.8946 8.0163
9/17/2021 4:15:00 PM 6.8944 7.9653
9/17/2021 4:30:00 PM 6.9026 7.8267
9/17/2021 4:45:00 PM 6.9077 7.9125
9/17/2021 5:00:00 PM 6.9082 8.0317
9/17/2021 5:15:00 PM 6.9044 7.8099
9/17/2021 5:30:00 PM 6.9034 7.6053
9/17/2021 5:45:00 PM 6.9034 7.6
9/17/2021 6:00:00 PM 6.9106 7.5634
9/17/2021 6:15:00 PM 6.9047 7.6179
9/17/2021 6:30:00 PM 6.903 7.5498
9/17/2021 6:45:00 PM 6.8975 7.4081
9/17/2021 7:00:00 PM 6.893 7.3046
9/17/2021 7:15:00 PM 6.8876 7.3502
9/17/2021 7:30:00 PM 6.8847 7.5038
9/17/2021 7:45:00 PM 6.8818 7.4761
9/17/2021 8:00:00 PM 6.8772 7.4759
9/17/2021 8:15:00 PM 6.8723 7.5332
9/17/2021 8:30:00 PM 6.8704 7.5801
9/17/2021 8:45:00 PM 6.8726 7.6
9/17/2021 9:00:00 PM 6.8734 8.5965
9/17/2021 9:15:00 PM 6.8699 8.0202
9/17/2021 9:30:00 PM 6.8697 8.0528
9/17/2021 9:45:00 PM 6.8684 7.9502
9/17/2021 10:00:00 PM 6.8661 7.8126
9/17/2021 10:15:00 PM 6.8684 7.8457
9/17/2021 10:30:00 PM 6.869 7.8325
9/17/2021 10:45:00 PM 6.8676 8.1497
9/17/2021 11:00:00 PM 6.8693 7.7688
9/17/2021 11:15:00 PM 6.8693 7.7566
9/17/2021 11:30:00 PM 6.8704 7.6937
9/17/2021 11:45:00 PM 6.8712 7.6
9/18/2021 12:00:00 AM 6.8704 7.4402
9/18/2021 12:15:00 AM 6.8704 7.6434
9/18/2021 12:30:00 AM 6.8721 7.6005
9/18/2021 12:45:00 AM 6.875 7.6181
9/18/2021 1:00:00 AM 6.8764 7.4763
9/18/2021 1:15:00 AM 6.8802 7.5191
9/18/2021 1:30:00 AM 6.8831 7.3901
9/18/2021 1:45:00 AM 6.8857 7.398
9/18/2021 2:00:00 AM 6.8895 7.2427
9/18/2021 2:15:00 AM 6.8928 7.186
9/18/2021 2:30:00 AM 6.8939 7.1347
9/18/2021 2:45:00 AM 6.8922 7.1001
9/18/2021 3:00:00 AM 6.9021 6.9004
9/18/2021 3:15:00 AM 6.9076 7.5894
9/18/2021 3:30:00 AM 6.9141 6.9374
9/18/2021 3:45:00 AM 6.9174 6.7191
9/18/2021 4:00:00 AM 6.922 6.5074
9/18/2021 4:15:00 AM 6.9254 6.4719
9/18/2021 4:30:00 AM 6.9295 6.2822
9/18/2021 4:45:00 AM 6.9326 6.3012
9/18/2021 5:00:00 AM 6.937 6.2945
9/18/2021 5:15:00 AM 6.943 6.2661
9/18/2021 5:30:00 AM 6.947 6.2124
9/18/2021 5:45:00 AM 6.944 6.3
9/18/2021 6:00:00 AM 6.9399 6.0955
9/18/2021 6:15:00 AM 6.9163 5.8843
9/18/2021 6:30:00 AM 6.9021 5.751
9/18/2021 6:45:00 AM 6.8977 5.7653
9/18/2021 7:00:00 AM 6.8983 5.6135
9/18/2021 7:15:00 AM 6.9017 5.5063
9/18/2021 7:30:00 AM 6.9099 5.4153
9/18/2021 7:45:00 AM 6.9127 5.4472
9/18/2021 8:00:00 AM 6.9135 5.3302
9/18/2021 8:15:00 AM 6.918 5.1879
9/18/2021 8:30:00 AM 6.9224 5.0276
9/18/2021 8:45:00 AM 6.923 5
9/18/2021 9:00:00 AM 6.9317 4.8327
9/18/2021 9:15:00 AM 6.9362 4.7891
9/18/2021 9:30:00 AM 6.9415 5.0189
9/18/2021 9:45:00 AM 6.9469 4.7595
9/18/2021 10:00:00 AM 6.9519 4.5502
9/18/2021 10:15:00 AM 6.9585 4.5247
9/18/2021 10:30:00 AM 6.9629 4.2891
9/18/2021 10:45:00 AM 6.9691 4.2579
9/18/2021 11:00:00 AM 6.9778 4.2588
9/18/2021 11:15:00 AM 6.9889 4.0858
9/18/2021 11:30:00 AM 6.9984 4.0475
9/18/2021 11:45:00 AM 7.0042 4.1
9/18/2021 12:00:00 PM 7.0328 4.1551
9/18/2021 12:15:00 PM 7.044 4.1829
9/18/2021 12:30:00 PM 7.0622 4.1329
9/18/2021 12:45:00 PM 7.0829 4.0796
9/18/2021 1:00:00 PM 7.0782 4.0201
9/18/2021 1:15:00 PM 7.0402 3.952
9/18/2021 1:30:00 PM 7.0223 3.8621
9/18/2021 1:45:00 PM 7.0121 3.8636
9/18/2021 2:00:00 PM 7.0122 3.8703
9/18/2021 2:15:00 PM 7.0139 3.8414
9/18/2021 2:30:00 PM 7.0184 3.8607
9/18/2021 2:45:00 PM 7.0204 3.7622
9/18/2021 3:00:00 PM 7.0245 3.7447
9/18/2021 3:15:00 PM 7.0331 3.7425
9/18/2021 3:30:00 PM 7.0475 3.7358
9/18/2021 3:45:00 PM 7.067 3.7532
9/18/2021 4:00:00 PM 7.0961 3.6484
9/18/2021 4:15:00 PM 7.124 3.6178
9/18/2021 4:30:00 PM 7.1433 3.6309
9/18/2021 4:45:00 PM 7.1598 3.6217
9/18/2021 5:00:00 PM 7.1754 3.5876
9/18/2021 5:15:00 PM 7.18 3.5957
9/18/2021 5:30:00 PM 7.1773 3.6502
9/18/2021 5:45:00 PM 7.1736 3.7
9/18/2021 6:00:00 PM 7.175 3.6912
9/18/2021 6:15:00 PM 7.1839 3.6496
9/18/2021 6:30:00 PM 7.1782 3.6007
9/18/2021 6:45:00 PM 7.1845 3.6541
9/18/2021 7:00:00 PM 7.1798 3.6558
9/18/2021 7:15:00 PM 7.1705 3.7993
9/18/2021 7:30:00 PM 7.1623 3.7006
9/18/2021 7:45:00 PM 7.154 3.6354
9/18/2021 8:00:00 PM 7.147 3.6287
9/18/2021 8:15:00 PM 7.14 3.7896
9/18/2021 8:30:00 PM 7.1317 3.7575
9/18/2021 8:45:00 PM 7.1288 3.9
9/18/2021 9:00:00 PM 7.1238 4.7414
9/18/2021 9:15:00 PM 7.1164 4.4509
9/18/2021 9:30:00 PM 7.1083 4.3275
9/18/2021 9:45:00 PM 7.1012 4.2971
9/18/2021 10:00:00 PM 7.0953 4.2701
9/18/2021 10:15:00 PM 7.0899 4.1906
9/18/2021 10:30:00 PM 7.0832 4.2325
9/18/2021 10:45:00 PM 7.0773 4.2827
9/18/2021 11:00:00 PM 7.0719 4.3326
9/18/2021 11:15:00 PM 7.0659 4.2236
9/18/2021 11:30:00 PM 7.0624 4.2306
9/18/2021 11:45:00 PM 7.0602 4.3
9/19/2021 12:00:00 AM 7.0532 4.2529
9/19/2021 12:15:00 AM 7.0503 4.2396
9/19/2021 12:30:00 AM 7.046 4.2268
9/19/2021 12:45:00 AM 7.0417 4.2294
9/19/2021 1:00:00 AM 7.0373 4.2411
9/19/2021 1:15:00 AM 7.0338 4.2343
9/19/2021 1:30:00 AM 7.0299 4.1573
9/19/2021 1:45:00 AM 7.0277 4.1981
9/19/2021 2:00:00 AM 7.0239 4.1397
9/19/2021 2:15:00 AM 7.022 4.1452
9/19/2021 2:30:00 AM 7.0193 4.1701
9/19/2021 2:45:00 AM 7.021 4.2001
9/19/2021 3:00:00 AM 7.0011 4.1176
9/19/2021 3:15:00 AM 6.9736 3.9067
9/19/2021 3:30:00 AM 6.9563 3.8431
9/19/2021 3:45:00 AM 6.9492 3.8287
9/19/2021 4:00:00 AM 6.95 3.8317
9/19/2021 4:15:00 AM 6.9528 3.7737
9/19/2021 4:30:00 AM 6.951 3.7866
9/19/2021 4:45:00 AM 6.9498 3.8559
9/19/2021 5:00:00 AM 6.9522 3.8466
9/19/2021 5:15:00 AM 6.9518 3.8589
9/19/2021 5:30:00 AM 6.9566 3.8735
9/19/2021 5:45:00 AM 6.958 3.9
9/19/2021 6:00:00 AM 6.9606 3.9315
9/19/2021 6:15:00 AM 6.9616 3.9362
9/19/2021 6:30:00 AM 6.9615 4.0294
9/19/2021 6:45:00 AM 6.96 4.0418
9/19/2021 7:00:00 AM 6.9615 4.0441
9/19/2021 7:15:00 AM 6.961 4.0095
9/19/2021 7:30:00 AM 6.9617 3.9301
9/19/2021 7:45:00 AM 6.9619 3.9473
9/19/2021 8:00:00 AM 6.9657 3.9306
9/19/2021 8:15:00 AM 6.9661 3.836
9/19/2021 8:30:00 AM 6.9646 3.7278
9/19/2021 8:45:00 AM 6.9678 3.7
9/19/2021 9:00:00 AM 6.9651 3.6792
9/19/2021 9:15:00 AM 6.9666 3.638
9/19/2021 9:30:00 AM 6.9684 3.6354
9/19/2021 9:45:00 AM 6.9706 3.636
9/19/2021 10:00:00 AM 6.9708 3.5649
9/19/2021 10:15:00 AM 6.9727 3.7831
9/19/2021 10:30:00 AM 6.9759 3.5316
9/19/2021 10:45:00 AM 6.9758 3.453
9/19/2021 11:00:00 AM 6.9756 3.4326
9/19/2021 11:15:00 AM 6.9797 3.4267
9/19/2021 11:30:00 AM 6.9824 3.4376
9/19/2021 11:45:00 AM 6.9846 3.4
9/19/2021 12:00:00 PM 6.9784 7.9141
9/19/2021 12:15:00 PM 6.9817 3.4592
9/19/2021 12:30:00 PM 6.9903 3.2968
9/19/2021 12:45:00 PM 6.995 3.2576
9/19/2021 1:00:00 PM 6.9996 3.2105
9/19/2021 1:15:00 PM 7.0031 3.1433
9/19/2021 1:30:00 PM 7.0101 3.1396
9/19/2021 1:45:00 PM 7.0157 3.1566
9/19/2021 2:00:00 PM 7.0224 3.0768
9/19/2021 2:15:00 PM 7.0273 3.0418
9/19/2021 2:30:00 PM 7.0361 3.0457
9/19/2021 2:45:00 PM 7.046 2.9959
9/19/2021 3:00:00 PM 7.0525 2.9308
9/19/2021 3:15:00 PM 7.0598 2.9417
9/19/2021 3:30:00 PM 7.0668 2.9302
9/19/2021 3:45:00 PM 7.0744 2.9307
9/19/2021 4:00:00 PM 7.0822 2.9446
9/19/2021 4:15:00 PM 7.0939 2.9257
9/19/2021 4:30:00 PM 7.1018 2.956
9/19/2021 4:45:00 PM 7.1097 2.9349
9/19/2021 5:00:00 PM 7.122 2.845
9/19/2021 5:15:00 PM 7.1333 2.9062
9/19/2021 5:30:00 PM 7.1483 2.9303
9/19/2021 5:45:00 PM 7.1582 2.9
9/19/2021 6:00:00 PM 7.1729 2.8293
9/19/2021 6:15:00 PM 7.179 2.8608
9/19/2021 6:30:00 PM 7.1855 2.838
9/19/2021 6:45:00 PM 7.1918 2.8502
9/19/2021 7:00:00 PM 7.1972 2.8401
9/19/2021 7:15:00 PM 7.1966 2.8975
9/19/2021 7:30:00 PM 7.1938 2.9108
9/19/2021 7:45:00 PM 7.1945 2.9472
9/19/2021 8:00:00 PM 7.1955 2.9384
9/19/2021 8:15:00 PM 7.1934 3.0345
9/19/2021 8:30:00 PM 7.1929 3.1168
9/19/2021 8:45:00 PM 7.1904 3.3
9/19/2021 9:00:00 PM 7.1884 3.1816
9/19/2021 9:15:00 PM 7.1863 3.0656
9/19/2021 9:30:00 PM 7.1791 3.5992
9/19/2021 9:45:00 PM 7.1654 4.0484
9/19/2021 10:00:00 PM 7.1731 3.6758
9/19/2021 10:15:00 PM 7.1727 3.5797
9/19/2021 10:30:00 PM 7.1688 3.4319
9/19/2021 10:45:00 PM 7.1631 3.4649
9/19/2021 11:00:00 PM 7.1565 3.4141
9/19/2021 11:15:00 PM 7.1516 3.3496
9/19/2021 11:30:00 PM 7.1439 3.2256
9/19/2021 11:45:00 PM 7.1414 3.2
9/20/2021 12:00:00 AM 7.129 3.2524
9/20/2021 12:15:00 AM 7.1222 3.2593
9/20/2021 12:30:00 AM 7.1142 3.2315
9/20/2021 12:45:00 AM 7.1059 3.2424
9/20/2021 1:00:00 AM 7.0983 3.217
9/20/2021 1:15:00 AM 7.0899 3.2849
9/20/2021 1:30:00 AM 7.0841 3.3248
9/20/2021 1:45:00 AM 7.0803 3.2579
9/20/2021 2:00:00 AM 7.0731 3.3053
9/20/2021 2:15:00 AM 7.0678 3.3392
9/20/2021 2:30:00 AM 7.0624 3.3624
9/20/2021 2:45:00 AM 7.0644 3.3999
9/20/2021 3:00:00 AM 7.0538 3.3217
9/20/2021 3:15:00 AM 7.0508 3.3331
9/20/2021 3:30:00 AM 7.0477 3.3287
9/20/2021 3:45:00 AM 7.0475 3.3406
9/20/2021 4:00:00 AM 7.0447 3.4073
9/20/2021 4:15:00 AM 7.0433 3.5231
9/20/2021 4:30:00 AM 7.0429 3.3424
9/20/2021 4:45:00 AM 7.0418 3.2482
9/20/2021 5:00:00 AM 7.0441 3.2784
9/20/2021 5:15:00 AM 7.0437 3.3145
9/20/2021 5:30:00 AM 7.0427 3.3291
9/20/2021 5:45:00 AM 7.0434 3.2
9/20/2021 6:00:00 AM 7.011 3.3834
9/20/2021 6:15:00 AM 6.997 3.2379
9/20/2021 6:30:00 AM 6.9877 3.1284
9/20/2021 6:45:00 AM 6.9859 3.1874
9/20/2021 7:00:00 AM 6.9878 3.2242
9/20/2021 7:15:00 AM 6.9951 3.3426
9/20/2021 7:30:00 AM 6.9974 3.2332
9/20/2021 7:45:00 AM 7.0037 3.1355
9/20/2021 8:00:00 AM 7.0061 3.2167
9/20/2021 8:15:00 AM 7.0047 3.2519
9/20/2021 8:30:00 AM 7.0077 3.178
9/20/2021 8:45:00 AM 7.0084 3.2
9/20/2021 9:00:00 AM 7.0172 3.1222
9/20/2021 9:15:00 AM 7.0239 3.1298
9/20/2021 9:30:00 AM 7.0313 3.0381
9/20/2021 9:45:00 AM 7.0329 3.0506
9/20/2021 10:00:00 AM 7.0339 2.9675
9/20/2021 10:15:00 AM 7.0375 2.9392
9/20/2021 10:30:00 AM 7.0393 2.9507
9/20/2021 10:45:00 AM 7.0458 2.9313
9/20/2021 11:00:00 AM 7.0533 2.9564
9/20/2021 11:15:00 AM 7.0569 3.0427
9/20/2021 11:30:00 AM 7.0638 2.9396
9/20/2021 11:45:00 AM 7.063 2.9001
9/20/2021 12:00:00 PM 7.0711 2.8946
9/20/2021 12:15:00 PM 7.0754 2.8833
9/20/2021 12:30:00 PM 7.0797 3.0985
9/20/2021 12:45:00 PM 7.0888 2.9358
9/20/2021 1:00:00 PM 7.0949 2.9308
9/20/2021 1:15:00 PM 7.0989 2.8446
9/20/2021 1:30:00 PM 7.1038 2.8131
9/20/2021 1:45:00 PM 7.1122 2.7469
9/20/2021 2:00:00 PM 7.1224 2.742
9/20/2021 2:15:00 PM 7.1283 2.7427
9/20/2021 2:30:00 PM 7.1414 2.7262
9/20/2021 2:45:00 PM 7.1544 2.7094
9/20/2021 3:00:00 PM 7.1657 2.7488
9/20/2021 3:15:00 PM 7.1772 2.674
9/20/2021 3:30:00 PM 7.1959 2.734
9/20/2021 3:45:00 PM 7.2184 2.6998
9/20/2021 4:00:00 PM 7.2336 2.6446
9/20/2021 4:15:00 PM 7.2489 2.6551
9/20/2021 4:30:00 PM 7.2579 2.6465
9/20/2021 4:45:00 PM 7.2714 2.6617
9/20/2021 5:00:00 PM 7.2889 2.6438
9/20/2021 5:15:00 PM 7.3091 2.694
9/20/2021 5:30:00 PM 7.3254 2.7415
9/20/2021 5:45:00 PM 7.336 2.7
9/20/2021 6:00:00 PM 7.3541 2.7559
9/20/2021 6:15:00 PM 7.3718 3.7136
9/20/2021 6:30:00 PM 7.3615 3.2648
9/20/2021 6:45:00 PM 7.374 3.0697
9/20/2021 7:00:00 PM 7.3858 3.1543
9/20/2021 7:15:00 PM 7.3878 3.1232
9/20/2021 7:30:00 PM 7.3854 3.0945
9/20/2021 7:45:00 PM 7.3854 3.1048
9/20/2021 8:00:00 PM 7.3879 3.1206
9/20/2021 8:15:00 PM 7.3867 3.04
9/20/2021 8:30:00 PM 7.3862 3.0624
9/20/2021 8:45:00 PM 7.3836 3.1
9/20/2021 9:00:00 PM 7.3747 3.2455
9/20/2021 9:15:00 PM 7.3653 3.4455
9/20/2021 9:30:00 PM 7.3561 3.4669
9/20/2021 9:45:00 PM 7.347 3.2975
9/20/2021 10:00:00 PM 7.3379 3.0539
9/20/2021 10:15:00 PM 7.3289 3.1607
9/20/2021 10:30:00 PM 7.3193 3.1518
9/20/2021 10:45:00 PM 7.3095 3.1873
9/20/2021 11:00:00 PM 7.2958 3.1195
9/20/2021 11:15:00 PM 7.2826 3.0828
9/20/2021 11:30:00 PM 7.2719 2.9964
9/20/2021 11:45:00 PM 7.2674 3.1
9/21/2021 12:00:00 AM 7.2527 2.9856
9/21/2021 12:15:00 AM 7.2349 2.9742
9/21/2021 12:30:00 AM 7.2203 3.028
9/21/2021 12:45:00 AM 7.2082 3.0078
9/21/2021 1:00:00 AM 7.1958 2.94
9/21/2021 1:15:00 AM 7.1827 3.037
9/21/2021 1:30:00 AM 7.1744 3.1441
9/21/2021 1:45:00 AM 7.1654 3.1888
9/21/2021 2:00:00 AM 7.1573 3.2271
9/21/2021 2:15:00 AM 7.1479 3.2362
9/21/2021 2:30:00 AM 7.1395 3.1457
9/21/2021 2:45:00 AM 7.1358 3.2
9/21/2021 3:00:00 AM 7.1278 3.029
9/21/2021 3:15:00 AM 7.1221 3.0545
9/21/2021 3:30:00 AM 7.1174 2.9927
9/21/2021 3:45:00 AM 7.1151 3.1448
9/21/2021 4:00:00 AM 7.1102 3.1277
9/21/2021 4:15:00 AM 7.1104 3.357
9/21/2021 4:30:00 AM 7.1094 3.192
9/21/2021 4:45:00 AM 7.1056 3.1537
9/21/2021 5:00:00 AM 7.1057 3.0937
9/21/2021 5:15:00 AM 7.1061 3.0334
9/21/2021 5:30:00 AM 7.1051 3.2062
9/21/2021 5:45:00 AM 7.1064 3.4
9/21/2021 6:00:00 AM 7.0913 3.262
9/21/2021 6:15:00 AM 7.073 3.1919
9/21/2021 6:30:00 AM 7.0518 3.1496
9/21/2021 6:45:00 AM 7.0469 3.0424
9/21/2021 7:00:00 AM 7.0471 2.9482
9/21/2021 7:15:00 AM 7.0466 3.1174
9/21/2021 7:30:00 AM 7.0441 3.1302
9/21/2021 7:45:00 AM 7.0453 3.111
9/21/2021 8:00:00 AM 7.0471 2.9227
9/21/2021 8:15:00 AM 7.0484 2.8825
9/21/2021 8:30:00 AM 7.0481 2.8474
9/21/2021 8:45:00 AM 7.0476 2.9
9/21/2021 9:00:00 AM 7.0562 2.8285
9/21/2021 9:15:00 AM 7.0616 3.0026
9/21/2021 9:30:00 AM 7.0685 3.0122
9/21/2021 9:45:00 AM 7.0848 2.9483
9/21/2021 10:00:00 AM 7.0955 2.9896
9/21/2021 10:15:00 AM 7.1052 2.9324
9/21/2021 10:30:00 AM 7.1157 2.8289
9/21/2021 10:45:00 AM 7.1276 2.8055
9/21/2021 11:00:00 AM 7.1345 2.8522
9/21/2021 11:15:00 AM 7.1411 2.8482
9/21/2021 11:30:00 AM 7.1505 2.8123
9/21/2021 11:45:00 AM 7.1498 2.8
9/21/2021 12:00:00 PM 7.1679 2.7184
9/21/2021 12:15:00 PM 7.178 2.7913
9/21/2021 12:30:00 PM 7.1902 2.8643
9/21/2021 12:45:00 PM 7.2001 2.8418
9/21/2021 1:00:00 PM 7.2124 2.7558
9/21/2021 1:15:00 PM 7.2257 2.8529
9/21/2021 1:30:00 PM 7.2381 2.7237
9/21/2021 1:45:00 PM 7.2524 2.7342
9/21/2021 2:00:00 PM 7.2728 2.8919
9/21/2021 2:15:00 PM 7.2901 2.8991
9/21/2021 2:30:00 PM 7.3043 2.7003
9/21/2021 2:45:00 PM 7.3214 2.696
9/21/2021 3:00:00 PM 7.3378 2.6416
9/21/2021 3:15:00 PM 7.3486 2.6422
9/21/2021 3:30:00 PM 7.3534 2.6384
9/21/2021 3:45:00 PM 7.3623 2.638
9/21/2021 4:00:00 PM 7.381 2.5748
9/21/2021 4:15:00 PM 7.4012 2.5207
9/21/2021 4:30:00 PM 7.4091 2.5933
9/21/2021 4:45:00 PM 7.4254 2.4771
9/21/2021 5:00:00 PM 7.4339 2.4997
9/21/2021 5:15:00 PM 7.4341 2.5563
9/21/2021 5:30:00 PM 7.4439 2.4637
9/21/2021 5:45:00 PM 7.4466 2.5
9/21/2021 6:00:00 PM 7.4633 2.5043
9/21/2021 6:15:00 PM 7.4677 2.5366
9/21/2021 6:30:00 PM 7.4682 2.5427
9/21/2021 6:45:00 PM 7.4658 2.7296
9/21/2021 7:00:00 PM 7.4635 2.8311
9/21/2021 7:15:00 PM 7.4683 2.7049
9/21/2021 7:30:00 PM 7.4688 2.5509
9/21/2021 7:45:00 PM 7.4666 2.5602
9/21/2021 8:00:00 PM 7.4587 2.7079
9/21/2021 8:15:00 PM 7.4509 2.8251
9/21/2021 8:30:00 PM 7.4421 3.0289
9/21/2021 8:45:00 PM 7.434 3
9/21/2021 9:00:00 PM 7.4264 3.0068
9/21/2021 9:15:00 PM 7.4184 2.9271
9/21/2021 9:30:00 PM 7.4077 2.8838
9/21/2021 9:45:00 PM 7.3954 2.8718
9/21/2021 10:00:00 PM 7.3655 3.5804
9/21/2021 10:15:00 PM 7.3641 3.4597
9/21/2021 10:30:00 PM 7.3577 3.3369
9/21/2021 10:45:00 PM 7.3482 3.3878
9/21/2021 11:00:00 PM 7.3393 3.197
9/21/2021 11:15:00 PM 7.3255 3.3696
9/21/2021 11:30:00 PM 7.3124 3.3189
9/21/2021 11:45:00 PM 7.3108 3.2999
9/22/2021 12:00:00 AM 7.2877 3.2424
9/22/2021 12:15:00 AM 7.274 3.1226
9/22/2021 12:30:00 AM 7.2605 2.9734
9/22/2021 12:45:00 AM 7.2476 3.0874
9/22/2021 1:00:00 AM 7.2359 3.0789
9/22/2021 1:15:00 AM 7.2231 3.1402
9/22/2021 1:30:00 AM 7.2106 3.1261
9/22/2021 1:45:00 AM 7.201 3.0689
9/22/2021 2:00:00 AM 7.1927 3.0067
9/22/2021 2:15:00 AM 7.1819 2.9973
9/22/2021 2:30:00 AM 7.1703 3.15
9/22/2021 2:45:00 AM 7.1666 3.2
9/22/2021 3:00:00 AM 7.1514 3.1941
9/22/2021 3:15:00 AM 7.145 3.2194
9/22/2021 3:30:00 AM 7.1375 3.177
9/22/2021 3:45:00 AM 7.1338 3.3163
9/22/2021 4:00:00 AM 7.1264 3.2282
9/22/2021 4:15:00 AM 7.1212 3.2445
9/22/2021 4:30:00 AM 7.1163 3.4177
9/22/2021 4:45:00 AM 7.1136 3.3644
9/22/2021 5:00:00 AM 7.1113 3.31
9/22/2021 5:15:00 AM 7.1105 3.3497
9/22/2021 5:30:00 AM 7.1059 3.3475
9/22/2021 5:45:00 AM 7.105 3.3
9/22/2021 6:00:00 AM 7.0615 2.9723
9/22/2021 6:15:00 AM 7.0486 3.0508
9/22/2021 6:30:00 AM 7.0521 3.1175
9/22/2021 6:45:00 AM 7.0488 3.1237
9/22/2021 7:00:00 AM 7.0483 2.9993
9/22/2021 7:15:00 AM 7.0495 3.0265
9/22/2021 7:30:00 AM 7.0527 2.9814
9/22/2021 7:45:00 AM 7.0562 2.9575
9/22/2021 8:00:00 AM 7.0615 2.9745
9/22/2021 8:15:00 AM 7.0669 3.0269
9/22/2021 8:30:00 AM 7.071 2.9214
9/22/2021 8:45:00 AM 7.0742 2.9
9/22/2021 9:00:00 AM 7.0803 2.8072
9/22/2021 9:15:00 AM 7.0888 2.8288
9/22/2021 9:30:00 AM 7.0999 2.6464
9/22/2021 9:45:00 AM 7.108 2.6444
9/22/2021 10:00:00 AM 7.1176 2.6407
9/22/2021 10:15:00 AM 7.1396 2.6728
9/22/2021 10:30:00 AM 7.1342 2.6311
9/22/2021 10:45:00 AM 7.1529 2.5575
9/22/2021 11:00:00 AM 7.1682 2.5508
9/22/2021 11:15:00 AM 7.1774 3.6138
9/22/2021 11:30:00 AM 7.1909 3.215
9/22/2021 11:45:00 AM 7.2016 2.9
9/22/2021 12:00:00 PM 7.2277 2.5809
9/22/2021 12:15:00 PM 7.2467 2.7075
9/22/2021 12:30:00 PM 7.2672 2.5255
9/22/2021 12:45:00 PM 7.2831 2.4476
9/22/2021 1:00:00 PM 7.3066 2.3872
9/22/2021 1:15:00 PM 7.3256 2.3877
9/22/2021 1:30:00 PM 7.3435 2.3934
9/22/2021 1:45:00 PM 7.3512 2.4867
9/22/2021 2:00:00 PM 7.3762 2.5159
9/22/2021 2:15:00 PM 7.3928 2.4791
9/22/2021 2:30:00 PM 7.4025 2.562
9/22/2021 2:45:00 PM 7.4133 2.8988
9/22/2021 3:00:00 PM 7.4289 3.135
9/22/2021 3:15:00 PM 7.442 2.6958
9/22/2021 3:30:00 PM 7.4588 2.5379
9/22/2021 3:45:00 PM 7.4713 2.5208
9/22/2021 4:00:00 PM 7.4856 2.5503
9/22/2021 4:15:00 PM 7.5021 2.554
9/22/2021 4:30:00 PM 7.5107 2.4272
9/22/2021 4:45:00 PM 7.537 2.4416
9/22/2021 5:00:00 PM 7.5629 2.5254
9/22/2021 5:15:00 PM 7.5688 2.5245
9/22/2021 5:30:00 PM 7.5829 2.5721
9/22/2021 5:45:00 PM 7.595 2.6
9/22/2021 6:00:00 PM 7.6226 2.7787
9/22/2021 6:15:00 PM 7.6334 2.7856
9/22/2021 6:30:00 PM 7.6798 2.8082
9/22/2021 6:45:00 PM 7.6735 2.5546
9/22/2021 7:00:00 PM 7.639 2.4678
9/22/2021 7:15:00 PM 7.6317 2.5501
9/22/2021 7:30:00 PM 7.6362 2.6582
9/22/2021 7:45:00 PM 7.6225 3.44
9/22/2021 8:00:00 PM 7.6137 3.0149
9/22/2021 8:15:00 PM 7.6117 2.9974
9/22/2021 8:30:00 PM 7.6066 2.8871
9/22/2021 8:45:00 PM 7.6076 2.8
9/22/2021 9:00:00 PM 7.5941 2.6785
9/22/2021 9:15:00 PM 7.582 2.7509
9/22/2021 9:30:00 PM 7.5697 2.7547
9/22/2021 9:45:00 PM 7.5559 2.782
9/22/2021 10:00:00 PM 7.5435 2.8494
9/22/2021 10:15:00 PM 7.5283 2.9474
9/22/2021 10:30:00 PM 7.5126 3.1642
9/22/2021 10:45:00 PM 7.495 3.1566
9/22/2021 11:00:00 PM 7.4775 3.0446
9/22/2021 11:15:00 PM 7.463 3.1077
9/22/2021 11:30:00 PM 7.445 3.1789
9/22/2021 11:45:00 PM 7.441 3.2
9/23/2021 12:00:00 AM 7.4109 3.2559
9/23/2021 12:15:00 AM 7.3912 3.4447
9/23/2021 12:30:00 AM 7.3733 3.3634
9/23/2021 12:45:00 AM 7.3564 3.3766
9/23/2021 1:00:00 AM 7.3436 3.3674
9/23/2021 1:15:00 AM 7.3248 3.4851
9/23/2021 1:30:00 AM 7.3069 3.5847
9/23/2021 1:45:00 AM 7.2938 3.2534
9/23/2021 2:00:00 AM 7.2804 3.1543
9/23/2021 2:15:00 AM 7.2645 3.2719
9/23/2021 2:30:00 AM 7.2496 3.2204
9/23/2021 2:45:00 AM 7.2422 3.2001
9/23/2021 3:00:00 AM 7.2208 3.1606
9/23/2021 3:15:00 AM 7.2101 3.1108
9/23/2021 3:30:00 AM 7.2013 3.0706
9/23/2021 3:45:00 AM 7.1931 3.642
9/23/2021 4:00:00 AM 7.1868 3.1744
9/23/2021 4:15:00 AM 7.1696 3.0408
9/23/2021 4:30:00 AM 7.1356 2.819
9/23/2021 4:45:00 AM 7.1181 2.7511
9/23/2021 5:00:00 AM 7.1149 2.7781
9/23/2021 5:15:00 AM 7.1104 2.7459
9/23/2021 5:30:00 AM 7.1103 2.7467
9/23/2021 5:45:00 AM 7.112 2.7
9/23/2021 6:00:00 AM 7.1055 2.7043
9/23/2021 6:15:00 AM 7.1046 2.7319
9/23/2021 6:30:00 AM 7.105 2.7472
9/23/2021 6:45:00 AM 7.1053 2.784
9/23/2021 7:00:00 AM 7.1057 2.7562
9/23/2021 7:15:00 AM 7.1068 2.7355
9/23/2021 7:30:00 AM 7.1089 2.7209
9/23/2021 7:45:00 AM 7.1103 2.7234
9/23/2021 8:00:00 AM 7.113 2.7199
9/23/2021 8:15:00 AM 7.1172 2.663
9/23/2021 8:30:00 AM 7.1253 2.7945
9/23/2021 8:45:00 AM 7.1358 3
9/23/2021 9:00:00 AM 7.1513 2.8331
9/23/2021 9:15:00 AM 7.1647 2.8353
9/23/2021 9:30:00 AM 7.1765 2.7132
9/23/2021 9:45:00 AM 7.1843 2.7009
9/23/2021 10:00:00 AM 7.194 2.6643
9/23/2021 10:15:00 AM 7.2062 2.7321
9/23/2021 10:30:00 AM 7.2187 2.7778
9/23/2021 10:45:00 AM 7.2343 2.7379
9/23/2021 11:00:00 AM 7.2578 2.6641
9/23/2021 11:15:00 AM 7.273 2.6346
9/23/2021 11:30:00 AM 7.2843 2.541
9/23/2021 11:45:00 AM 7.2912 2.4999
9/23/2021 12:00:00 PM 7.3009 2.4545
9/23/2021 12:15:00 PM 7.3046 2.5717
9/23/2021 12:30:00 PM 7.3089 2.7854
9/23/2021 12:45:00 PM 7.3113 3.1094
9/23/2021 1:00:00 PM 7.3162 2.8542
9/23/2021 1:15:00 PM 7.3187 2.6497
9/23/2021 1:30:00 PM 7.3146 2.7619
9/23/2021 1:45:00 PM 7.3116 2.7413
9/23/2021 2:00:00 PM 7.3099 2.6114
9/23/2021 2:15:00 PM 7.3135 2.5444
9/23/2021 2:30:00 PM 7.3134 2.6912
9/23/2021 2:45:00 PM 7.3125 2.747
9/23/2021 3:00:00 PM 7.3119 6.3303
9/23/2021 3:15:00 PM 7.3185 13.3638
9/23/2021 3:30:00 PM 7.3169 16.7676
9/23/2021 3:45:00 PM 7.3148 18.9163
9/23/2021 4:00:00 PM 7.3383 137.0498
9/23/2021 4:15:00 PM 7.326 219.2606
9/23/2021 4:30:00 PM 7.3105 21.8196
9/23/2021 4:45:00 PM 7.3 53.3175
9/23/2021 5:00:00 PM 7.3127 42.4781
9/23/2021 5:15:00 PM 7.4917 17.7428
9/23/2021 5:30:00 PM 7.5758 16.3757
9/23/2021 5:45:00 PM 7.588 15.3
9/23/2021 6:00:00 PM 7.6027 14.7707
9/23/2021 6:15:00 PM 7.5814 14.9551
9/23/2021 6:30:00 PM 7.5605 15.5497
9/23/2021 6:45:00 PM 7.5343 15.5251
9/23/2021 7:00:00 PM 7.5033 14.7586
9/23/2021 7:15:00 PM 7.4592 13.9464
9/23/2021 7:30:00 PM 7.4262 11.8482
9/23/2021 7:45:00 PM 7.4143 11.5813
9/23/2021 8:00:00 PM 7.3915 10.8333
9/23/2021 8:15:00 PM 7.3758 10.3224
9/23/2021 8:30:00 PM 7.3589 9.5638
9/23/2021 8:45:00 PM 7.35 9.5
9/23/2021 9:00:00 PM 7.3276 9.0042
9/23/2021 9:15:00 PM 7.3128 8.6993
9/23/2021 9:30:00 PM 7.2986 8.2104
9/23/2021 9:45:00 PM 7.2829 7.6991
9/23/2021 10:00:00 PM 7.2573 7.2808
9/23/2021 10:15:00 PM 7.2318 7.477
9/23/2021 10:30:00 PM 7.2098 7.5641
9/23/2021 10:45:00 PM 7.1929 8.8055
9/23/2021 11:00:00 PM 7.1692 11.3735
9/23/2021 11:15:00 PM 7.1431 12.6755
9/23/2021 11:30:00 PM 7.121 13.7041
9/23/2021 11:45:00 PM 7.1078 14.1
9/24/2021 12:00:00 AM 7.0816 14.7144
9/24/2021 12:15:00 AM 7.0639 14.9957
9/24/2021 12:30:00 AM 7.0483 14.7255
9/24/2021 12:45:00 AM 7.0341 14.6063
9/24/2021 1:00:00 AM 7.0219 14.2987
9/24/2021 1:15:00 AM 7.009 14.153
9/24/2021 1:30:00 AM 6.9966 13.8804
9/24/2021 1:45:00 AM 6.986 13.7702
9/24/2021 2:00:00 AM 6.9751 13.4467
9/24/2021 2:15:00 AM 6.9646 13.3564
9/24/2021 2:30:00 AM 6.9578 13.0285
9/24/2021 2:45:00 AM 6.958 12.9001
9/24/2021 3:00:00 AM 6.9469 12.4163
9/24/2021 3:15:00 AM 6.9472 12.0572
9/24/2021 3:30:00 AM 6.9502 11.6919
9/24/2021 3:45:00 AM 6.952 11.0118
9/24/2021 4:00:00 AM 6.9535 10.4064
9/24/2021 4:15:00 AM 6.9528 10.0286
9/24/2021 4:30:00 AM 6.9566 9.4979
9/24/2021 4:45:00 AM 6.9591 9.1157
9/24/2021 5:00:00 AM 6.9632 8.8038
9/24/2021 5:15:00 AM 6.9662 8.7031
9/24/2021 5:30:00 AM 6.9697 8.646
9/24/2021 5:45:00 AM 6.9706 8.6
9/24/2021 6:00:00 AM 6.9695 8.63
9/24/2021 6:15:00 AM 6.968 8.6858
9/24/2021 6:30:00 AM 6.9664 8.5709
9/24/2021 6:45:00 AM 6.9635 8.5864
9/24/2021 7:00:00 AM 6.9596 8.4258
9/24/2021 7:15:00 AM 6.9567 8.3908
9/24/2021 7:30:00 AM 6.9547 8.2212
9/24/2021 7:45:00 AM 6.9517 8.1054
9/24/2021 8:00:00 AM 6.9483 7.8759
9/24/2021 8:15:00 AM 6.9465 7.7849
9/24/2021 8:30:00 AM 6.9469 7.5493
9/24/2021 8:45:00 AM 6.9482 7.4
9/24/2021 9:00:00 AM 6.9475 7.1849
9/24/2021 9:15:00 AM 6.9477 7.0224
9/24/2021 9:30:00 AM 6.9475 6.786
9/24/2021 9:45:00 AM 6.9476 6.6775
9/24/2021 10:00:00 AM 6.9472 6.496
9/24/2021 10:15:00 AM 6.9473 6.3825
9/24/2021 10:30:00 AM 6.9499 6.2926
9/24/2021 10:45:00 AM 6.9497 6.2098
9/24/2021 11:00:00 AM 6.9514 6.2559
9/24/2021 11:15:00 AM 6.9507 6.1971
9/24/2021 11:30:00 AM 6.9515 6.3681
9/24/2021 11:45:00 AM 6.9524 6.4
9/24/2021 12:00:00 PM 6.956 5.8821
9/24/2021 12:15:00 PM 6.9605 5.5552
9/24/2021 12:30:00 PM 6.9655 5.3021
9/24/2021 12:45:00 PM 6.9696 6.8665
9/24/2021 1:00:00 PM 6.9688 21.595
9/24/2021 1:15:00 PM 6.9666 4.6331
9/24/2021 1:30:00 PM 6.9702 4.4983
9/24/2021 1:45:00 PM 6.9728 4.4433
9/24/2021 2:00:00 PM 6.9782 4.4319
9/24/2021 2:15:00 PM 6.9839 4.3701
9/24/2021 2:30:00 PM 6.9882 4.249
9/24/2021 2:45:00 PM 6.9922 4.2443
9/24/2021 3:00:00 PM 6.9963 4.2351
9/24/2021 3:15:00 PM 7.0007 4.2068
9/24/2021 3:30:00 PM 7.0084 4.2286
9/24/2021 3:45:00 PM 7.0138 4.3327
9/24/2021 4:00:00 PM 7.0149 4.4071
9/24/2021 4:15:00 PM 7.0181 4.463
9/24/2021 4:30:00 PM 7.0162 4.5114
9/24/2021 4:45:00 PM 7.0142 4.5464
9/24/2021 5:00:00 PM 7.0124 4.6568
9/24/2021 5:15:00 PM 7.0102 4.9491
9/24/2021 5:30:00 PM 7.0089 5.1326
9/24/2021 5:45:00 PM 7.007 5.1
9/24/2021 6:00:00 PM 7.0048 5.1336
9/24/2021 6:15:00 PM 7.0037 5.2
9/24/2021 6:30:00 PM 7.0008 5.1443
9/24/2021 6:45:00 PM 7 5.3478
9/24/2021 7:00:00 PM 6.9982 5.3569
9/24/2021 7:15:00 PM 6.9979 5.5096
9/24/2021 7:30:00 PM 6.9954 5.5742
9/24/2021 7:45:00 PM 6.995 5.6725
9/24/2021 8:00:00 PM 6.9926 5.7264
9/24/2021 8:15:00 PM 6.9906 5.8412
9/24/2021 8:30:00 PM 6.9879 6.0922
9/24/2021 8:45:00 PM 6.986 6.3
9/24/2021 9:00:00 PM 6.981 6.3766
9/24/2021 9:15:00 PM 6.978 6.6073
9/24/2021 9:30:00 PM 6.9734 6.8353
9/24/2021 9:45:00 PM 6.9703 8.1561
9/24/2021 10:00:00 PM 6.9749 8.0355
9/24/2021 10:15:00 PM 6.9708 7.9033
9/24/2021 10:30:00 PM 6.9667 7.8389
9/24/2021 10:45:00 PM 6.9619 7.9973
9/24/2021 11:00:00 PM 6.9565 7.9324
9/24/2021 11:15:00 PM 6.9522 8.0731
9/24/2021 11:30:00 PM 6.9488 8.0205
9/24/2021 11:45:00 PM 6.9482 8.1
9/25/2021 12:00:00 AM 6.9988 8.0074
9/25/2021 12:15:00 AM 6.9889 8.0105
9/25/2021 12:30:00 AM 6.9822 8.0012
9/25/2021 12:45:00 AM 6.9528 8.1459
9/25/2021 1:00:00 AM 6.9341 7.9226
9/25/2021 1:15:00 AM 6.9383 7.8909
9/25/2021 1:30:00 AM 6.942 7.8972
9/25/2021 1:45:00 AM 6.9435 8.0744
9/25/2021 2:00:00 AM 6.9469 8.3152
9/25/2021 2:15:00 AM 6.9482 8.2106
9/25/2021 2:30:00 AM 6.9514 8.2942
9/25/2021 2:45:00 AM 6.9538 8.3998
9/25/2021 3:00:00 AM 6.952 8.2367
9/25/2021 3:15:00 AM 6.9513 8.6336
9/25/2021 3:30:00 AM 6.9481 8.9483
9/25/2021 3:45:00 AM 6.947 9.0942
9/25/2021 4:00:00 AM 6.9316 8.7252
9/25/2021 4:15:00 AM 6.9151 8.4675
9/25/2021 4:30:00 AM 6.9066 8.4546
9/25/2021 4:45:00 AM 6.9058 8.4395
9/25/2021 5:00:00 AM 6.9061 8.3398
9/25/2021 5:15:00 AM 6.9064 8.5197
9/25/2021 5:30:00 AM 6.9057 8.18
9/25/2021 5:45:00 AM 6.9034 8.1
9/25/2021 6:00:00 AM 6.9134 7.9275
9/25/2021 6:15:00 AM 6.918 7.8794
9/25/2021 6:30:00 AM 6.9203 7.865
9/25/2021 6:45:00 AM 6.9256 7.733
9/25/2021 7:00:00 AM 6.9296 7.5463
9/25/2021 7:15:00 AM 6.9352 7.4257
9/25/2021 7:30:00 AM 6.9382 7.4083
9/25/2021 7:45:00 AM 6.9423 7.2599
9/25/2021 8:00:00 AM 6.9483 6.9574
9/25/2021 8:15:00 AM 6.9522 6.8104
9/25/2021 8:30:00 AM 6.9562 6.7329
9/25/2021 8:45:00 AM 6.9538 6.6
9/25/2021 9:00:00 AM 6.9602 6.5358
9/25/2021 9:15:00 AM 6.9618 6.5638
9/25/2021 9:30:00 AM 6.9618 6.5552
9/25/2021 9:45:00 AM 6.96 6.713
9/25/2021 10:00:00 AM 6.955 6.7157
9/25/2021 10:15:00 AM 6.9506 6.9535
9/25/2021 10:30:00 AM 6.9466 7.2857
9/25/2021 10:45:00 AM 6.9391 7.0991
9/25/2021 11:00:00 AM 6.9312 7.0336
9/25/2021 11:15:00 AM 6.9252 7.2294
9/25/2021 11:30:00 AM 6.9169 7.3045
9/25/2021 11:45:00 AM 6.9146 7.4
9/25/2021 12:00:00 PM 6.9039 7.3982
9/25/2021 12:15:00 PM 6.8973 7.3644
9/25/2021 12:30:00 PM 6.891 7.2456
9/25/2021 12:45:00 PM 6.8844 7.3877
9/25/2021 1:00:00 PM 6.8789 7.2394
9/25/2021 1:15:00 PM 6.8728 7.1133
9/25/2021 1:30:00 PM 6.8671 7.0326
9/25/2021 1:45:00 PM 6.8603 7.1827
9/25/2021 2:00:00 PM 6.8551 7.1617
9/25/2021 2:15:00 PM 6.851 7.3121
9/25/2021 2:30:00 PM 6.8458 7.175
9/25/2021 2:45:00 PM 6.8411 7.1689
9/25/2021 3:00:00 PM 6.8364 7.1285
9/25/2021 3:15:00 PM 6.8326 7.2142
9/25/2021 3:30:00 PM 6.8275 7.2836
9/25/2021 3:45:00 PM 6.8238 7.2271
9/25/2021 4:00:00 PM 6.8216 7.2279
9/25/2021 4:15:00 PM 6.8186 7.3001
9/25/2021 4:30:00 PM 6.8155 7.2756
9/25/2021 4:45:00 PM 6.813 7.3162
9/25/2021 5:00:00 PM 6.8118 7.3405
9/25/2021 5:15:00 PM 6.8119 7.3148
9/25/2021 5:30:00 PM 6.8113 7.3252
9/25/2021 5:45:00 PM 6.8124 7.3
9/25/2021 6:00:00 PM 6.812 7.2349
9/25/2021 6:15:00 PM 6.8122 7.3189
9/25/2021 6:30:00 PM 6.8121 7.3721
9/25/2021 6:45:00 PM 6.8121 7.5736
9/25/2021 7:00:00 PM 6.8163 7.556
9/25/2021 7:15:00 PM 6.8167 7.4729
9/25/2021 7:30:00 PM 6.8169 7.5866
9/25/2021 7:45:00 PM 6.8195 7.5686
9/25/2021 8:00:00 PM 6.8218 8.8527
9/25/2021 8:15:00 PM 6.8288 9.0271
9/25/2021 8:30:00 PM 6.8333 8.6858
9/25/2021 8:45:00 PM 6.8376 8.4
9/25/2021 9:00:00 PM 6.8409 8.5788
9/25/2021 9:15:00 PM 6.8417 8.4238
9/25/2021 9:30:00 PM 6.8449 8.4867
9/25/2021 9:45:00 PM 6.8469 8.2626
9/25/2021 10:00:00 PM 6.8498 7.9899
9/25/2021 10:15:00 PM 6.8514 7.766
9/25/2021 10:30:00 PM 6.8515 7.8247
9/25/2021 10:45:00 PM 6.8512 7.9106
9/25/2021 11:00:00 PM 6.8523 7.7367
9/25/2021 11:15:00 PM 6.8534 7.6883
9/25/2021 11:30:00 PM 6.8558 7.7267
9/25/2021 11:45:00 PM 6.8558 7.7
9/26/2021 12:00:00 AM 6.8567 7.5374
9/26/2021 12:15:00 AM 6.8564 7.8019
9/26/2021 12:30:00 AM 6.8562 7.8037
9/26/2021 12:45:00 AM 6.8576 7.5278
9/26/2021 1:00:00 AM 6.8594 7.5532
9/26/2021 1:15:00 AM 6.8611 7.4926
9/26/2021 1:30:00 AM 6.8609 7.4403
9/26/2021 1:45:00 AM 6.8649 7.7084
9/26/2021 2:00:00 AM 6.8661 7.6005
9/26/2021 2:15:00 AM 6.8689 7.5234
9/26/2021 2:30:00 AM 6.8703 7.5041
9/26/2021 2:45:00 AM 6.8726 7.5
9/26/2021 3:00:00 AM 6.8716 7.3105
9/26/2021 3:15:00 AM 6.8745 7.1577
9/26/2021 3:30:00 AM 6.8757 7.1399
9/26/2021 3:45:00 AM 6.8689 7.1197
9/26/2021 4:00:00 AM 6.857 6.6011
9/26/2021 4:15:00 AM 6.8453 6.5411
9/26/2021 4:30:00 AM 6.8438 6.4592
9/26/2021 4:45:00 AM 6.8468 6.5327
9/26/2021 5:00:00 AM 6.8478 6.3965
9/26/2021 5:15:00 AM 6.8507 6.3041
9/26/2021 5:30:00 AM 6.8525 6.1587
9/26/2021 5:45:00 AM 6.8488 6.1
9/26/2021 6:00:00 AM 6.8569 6.0122
9/26/2021 6:15:00 AM 6.8606 5.9297
9/26/2021 6:30:00 AM 6.8638 6.0053
9/26/2021 6:45:00 AM 6.866 6.1433
9/26/2021 7:00:00 AM 6.8675 6.1776
9/26/2021 7:15:00 AM 6.8698 6.034
9/26/2021 7:30:00 AM 6.8693 5.9356
9/26/2021 7:45:00 AM 6.8694 5.9348
9/26/2021 8:00:00 AM 6.8709 5.8823
9/26/2021 8:15:00 AM 6.8712 5.8509
9/26/2021 8:30:00 AM 6.8709 5.8016
9/26/2021 8:45:00 AM 6.874 5.8
9/26/2021 9:00:00 AM 6.8708 5.5069
9/26/2021 9:15:00 AM 6.8711 5.3954
9/26/2021 9:30:00 AM 6.8723 5.2427
9/26/2021 9:45:00 AM 6.8732 5.1437
9/26/2021 10:00:00 AM 6.8714 5.2069
9/26/2021 10:15:00 AM 6.8709 5.1815
9/26/2021 10:30:00 AM 6.8668 5.1772
9/26/2021 10:45:00 AM 6.8652 5.134
9/26/2021 11:00:00 AM 6.8613 5.1043
9/26/2021 11:15:00 AM 6.8594 5.0527
9/26/2021 11:30:00 AM 6.8564 5.0719
9/26/2021 11:45:00 AM 6.8558 5
9/26/2021 12:00:00 PM 6.8533 5.0143
9/26/2021 12:15:00 PM 6.8516 4.9917
9/26/2021 12:30:00 PM 6.8497 5.1816
9/26/2021 12:45:00 PM 6.8512 6.079
9/26/2021 1:00:00 PM 6.8501 4.9809
9/26/2021 1:15:00 PM 6.847 4.8417
9/26/2021 1:30:00 PM 6.8472 4.8351
9/26/2021 1:45:00 PM 6.8469 4.7893
9/26/2021 2:00:00 PM 6.8465 4.7374
9/26/2021 2:15:00 PM 6.8467 4.6632
9/26/2021 2:30:00 PM 6.8465 4.5495
9/26/2021 2:45:00 PM 6.8468 4.523
9/26/2021 3:00:00 PM 6.8466 4.4694
9/26/2021 3:15:00 PM 6.8462 4.5434
9/26/2021 3:30:00 PM 6.8466 4.4445
9/26/2021 3:45:00 PM 6.8467 4.4032
9/26/2021 4:00:00 PM 6.8467 4.3937
9/26/2021 4:15:00 PM 6.8486 4.4556
9/26/2021 4:30:00 PM 6.8502 4.558
9/26/2021 4:45:00 PM 6.8506 4.6518
9/26/2021 5:00:00 PM 6.8488 4.6406
9/26/2021 5:15:00 PM 6.8467 4.5438
9/26/2021 5:30:00 PM 6.85 4.5093
9/26/2021 5:45:00 PM 6.853 4.5
9/26/2021 6:00:00 PM 6.8513 4.4275
9/26/2021 6:15:00 PM 6.851 4.4924
9/26/2021 6:30:00 PM 6.8516 4.6247
9/26/2021 6:45:00 PM 6.8518 4.573
9/26/2021 7:00:00 PM 6.8513 4.5532
9/26/2021 7:15:00 PM 6.8482 4.5991
9/26/2021 7:30:00 PM 6.8462 4.6362
9/26/2021 7:45:00 PM 6.845 4.6156
9/26/2021 8:00:00 PM 6.8412 5.4451
9/26/2021 8:15:00 PM 6.8451 5.8884
9/26/2021 8:30:00 PM 6.8468 5.2867
9/26/2021 8:45:00 PM 6.846 5.2
9/26/2021 9:00:00 PM 6.8469 5.0776
9/26/2021 9:15:00 PM 6.8465 4.9634
9/26/2021 9:30:00 PM 6.8464 4.9356
9/26/2021 9:45:00 PM 6.8462 4.8791
9/26/2021 10:00:00 PM 6.8467 4.8806
9/26/2021 10:15:00 PM 6.8451 4.8457
9/26/2021 10:30:00 PM 6.842 5.0022
9/26/2021 10:45:00 PM 6.8411 4.9277
9/26/2021 11:00:00 PM 6.8414 4.9501
9/26/2021 11:15:00 PM 6.8416 4.9262
9/26/2021 11:30:00 PM 6.8406 4.8948
9/26/2021 11:45:00 PM 6.8432 4.9
9/27/2021 12:00:00 AM 6.8374 4.8448
9/27/2021 12:15:00 AM 6.8367 5.0256
9/27/2021 12:30:00 AM 6.8365 4.9997
9/27/2021 12:45:00 AM 6.8364 4.8642
9/27/2021 1:00:00 AM 6.836 4.8354
9/27/2021 1:15:00 AM 6.8364 4.926
9/27/2021 1:30:00 AM 6.8345 4.9186
9/27/2021 1:45:00 AM 6.8347 4.8225
9/27/2021 2:00:00 AM 6.8357 4.8248
9/27/2021 2:15:00 AM 6.8342 4.8343
9/27/2021 2:30:00 AM 6.8359 4.7739
9/27/2021 2:45:00 AM 6.832 4.8999
9/27/2021 3:00:00 AM 6.8148 4.6451
9/27/2021 3:15:00 AM 6.8087 4.5094
9/27/2021 3:30:00 AM 6.8066 4.3521
9/27/2021 3:45:00 AM 6.8098 4.3632
9/27/2021 4:00:00 AM 6.8125 4.2788
9/27/2021 4:15:00 AM 6.8166 4.3002
9/27/2021 4:30:00 AM 6.8169 4.2588
9/27/2021 4:45:00 AM 6.8171 4.3057
9/27/2021 5:00:00 AM 6.8199 4.4167
9/27/2021 5:15:00 AM 6.8213 4.4217
9/27/2021 5:30:00 AM 6.8226 4.4069
9/27/2021 5:45:00 AM 6.8208 4.6
9/27/2021 6:00:00 AM 6.8235 4.3914
9/27/2021 6:15:00 AM 6.8269 4.3609
9/27/2021 6:30:00 AM 6.8278 4.296
9/27/2021 6:45:00 AM 6.8318 4.3429
9/27/2021 7:00:00 AM 6.8315 4.3378
9/27/2021 7:15:00 AM 6.8317 4.4568
9/27/2021 7:30:00 AM 6.8333 4.4351
9/27/2021 7:45:00 AM 6.8366 4.276
9/27/2021 8:00:00 AM 6.8377 4.2371
9/27/2021 8:15:00 AM 6.8396 4.1735
9/27/2021 8:30:00 AM 6.8413 4.1326
9/27/2021 8:45:00 AM 6.8432 4.2
9/27/2021 9:00:00 AM 6.8418 4.0243
9/27/2021 9:15:00 AM 6.8412 4.0523
9/27/2021 9:30:00 AM 6.8418 4.0134
9/27/2021 9:45:00 AM 6.8415 3.9381
9/27/2021 10:00:00 AM 6.8419 3.9541
9/27/2021 10:15:00 AM 6.8419 3.8899
9/27/2021 10:30:00 AM 6.8432 3.9162
9/27/2021 10:45:00 AM 6.8418 3.8518
9/27/2021 11:00:00 AM 6.8416 3.7715
9/27/2021 11:15:00 AM 6.8417 3.7312
9/27/2021 11:30:00 AM 6.8419 3.779
9/27/2021 11:45:00 AM 6.8432 3.9
9/27/2021 12:00:00 PM 6.8418 3.7045
9/27/2021 12:15:00 PM 6.8431 3.8567
9/27/2021 12:30:00 PM 6.8467 3.9731
9/27/2021 12:45:00 PM 6.8468 4.0526
9/27/2021 1:00:00 PM 6.8468 3.8776
9/27/2021 1:15:00 PM 6.8489 3.7537
9/27/2021 1:30:00 PM 6.8512 3.6446
9/27/2021 1:45:00 PM 6.8558 3.6524
9/27/2021 2:00:00 PM 6.8567 3.6028
9/27/2021 2:15:00 PM 6.8606 4.0412
9/27/2021 2:30:00 PM 6.866 4.4511
9/27/2021 2:45:00 PM 6.8668 4.0503
9/27/2021 3:00:00 PM 6.8709 3.6727
9/27/2021 3:15:00 PM 6.875 3.4514
9/27/2021 3:30:00 PM 6.8805 3.3753
9/27/2021 3:45:00 PM 6.8869 3.33
9/27/2021 4:00:00 PM 6.8961 3.2645
9/27/2021 4:15:00 PM 6.9051 3.2436
9/27/2021 4:30:00 PM 6.9116 3.2254
9/27/2021 4:45:00 PM 6.9206 3.1678
9/27/2021 5:00:00 PM 6.9261 3.1307
9/27/2021 5:15:00 PM 6.9307 3.1168
9/27/2021 5:30:00 PM 6.9375 3.1348
9/27/2021 5:45:00 PM 6.9398 3.2
9/27/2021 6:00:00 PM 6.9533 3.1157
9/27/2021 6:15:00 PM 6.9602 3.2337
9/27/2021 6:30:00 PM 6.9646 3.2556
9/27/2021 6:45:00 PM 6.9711 3.2381
9/27/2021 7:00:00 PM 6.9914 4.1982
9/27/2021 7:15:00 PM 6.9858 4.0208
9/27/2021 7:30:00 PM 6.9881 3.668
9/27/2021 7:45:00 PM 6.9928 3.5505
9/27/2021 8:00:00 PM 6.9986 3.5083
9/27/2021 8:15:00 PM 6.9995 3.4548
9/27/2021 8:30:00 PM 7.0007 3.4741
9/27/2021 8:45:00 PM 7.007 3.6
9/27/2021 9:00:00 PM 7.0039 3.4943
9/27/2021 9:15:00 PM 7.0057 3.5761
9/27/2021 9:30:00 PM 7.0079 3.5347
9/27/2021 9:45:00 PM 7.0087 3.4856
9/27/2021 10:00:00 PM 7.0075 3.48
9/27/2021 10:15:00 PM 7.0033 3.4628
9/27/2021 10:30:00 PM 6.9988 3.508
9/27/2021 10:45:00 PM 6.9941 3.5427
9/27/2021 11:00:00 PM 6.9907 3.4966
9/27/2021 11:15:00 PM 6.9865 3.4463
9/27/2021 11:30:00 PM 6.9843 3.4073
9/27/2021 11:45:00 PM 6.9818 3.4
9/28/2021 12:00:00 AM 6.9752 3.4421
9/28/2021 12:15:00 AM 6.9715 3.4305
9/28/2021 12:30:00 AM 6.9666 3.4354
9/28/2021 12:45:00 AM 6.9619 3.4619
9/28/2021 1:00:00 AM 6.9588 3.4146
9/28/2021 1:15:00 AM 6.9551 3.401
9/28/2021 1:30:00 AM 6.9524 3.4844
9/28/2021 1:45:00 AM 6.9495 3.4538
9/28/2021 2:00:00 AM 6.9476 3.8265
9/28/2021 2:15:00 AM 6.9436 3.494
9/28/2021 2:30:00 AM 6.9421 3.44
9/28/2021 2:45:00 AM 6.944 3.5
9/28/2021 3:00:00 AM 6.9379 3.5292
9/28/2021 3:15:00 AM 6.9376 3.4705
9/28/2021 3:30:00 AM 6.9381 3.4429
9/28/2021 3:45:00 AM 6.9378 3.4434
9/28/2021 4:00:00 AM 6.9376 3.4557
9/28/2021 4:15:00 AM 6.9351 3.443
9/28/2021 4:30:00 AM 6.9357 3.4414
9/28/2021 4:45:00 AM 6.9382 3.4452
9/28/2021 5:00:00 AM 6.9376 3.4577
9/28/2021 5:15:00 AM 6.9386 3.57
9/28/2021 5:30:00 AM 6.9415 3.7143
9/28/2021 5:45:00 AM 6.9426 3.6
9/28/2021 6:00:00 AM 6.929 3.3574
9/28/2021 6:15:00 AM 6.9131 3.3245
9/28/2021 6:30:00 AM 6.9092 3.2406
9/28/2021 6:45:00 AM 6.9114 3.2346
9/28/2021 7:00:00 AM 6.912 3.2296
9/28/2021 7:15:00 AM 6.9126 3.1885
9/28/2021 7:30:00 AM 6.9127 3.1753
9/28/2021 7:45:00 AM 6.9161 3.2176
9/28/2021 8:00:00 AM 6.9182 3.1363
9/28/2021 8:15:00 AM 6.9154 3.1427
9/28/2021 8:30:00 AM 6.9118 3.146
9/28/2021 8:45:00 AM 6.9146 3.1
9/28/2021 9:00:00 AM 6.9188 3.1605
9/28/2021 9:15:00 AM 6.9222 3.0938
9/28/2021 9:30:00 AM 6.9253 3.0742
9/28/2021 9:45:00 AM 6.9274 3.0765
9/28/2021 10:00:00 AM 6.9306 3.0289
9/28/2021 10:15:00 AM 6.9346 3.0746
9/28/2021 10:30:00 AM 6.9349 3.0605
9/28/2021 10:45:00 AM 6.9351 3.0534
9/28/2021 11:00:00 AM 6.9333 3.0562
9/28/2021 11:15:00 AM 6.9332 3.058
9/28/2021 11:30:00 AM 6.9334 3.0101
9/28/2021 11:45:00 AM 6.9356 2.9999
9/28/2021 12:00:00 PM 6.9338 2.931
9/28/2021 12:15:00 PM 6.9341 2.9542
9/28/2021 12:30:00 PM 6.9349 3.1957
9/28/2021 12:45:00 PM 6.9377 3.0676
9/28/2021 1:00:00 PM 6.9357 2.9409
9/28/2021 1:15:00 PM 6.9331 2.8571
9/28/2021 1:30:00 PM 6.9334 2.8653
9/28/2021 1:45:00 PM 6.9382 2.8578
9/28/2021 2:00:00 PM 6.9417 2.8595
9/28/2021 2:15:00 PM 6.9453 2.8628
9/28/2021 2:30:00 PM 6.9507 2.8082
9/28/2021 2:45:00 PM 6.9522 2.8437
9/28/2021 3:00:00 PM 6.9549 2.7723
9/28/2021 3:15:00 PM 6.959 2.7852
9/28/2021 3:30:00 PM 6.9649 2.9324
9/28/2021 3:45:00 PM 6.9667 2.8561
9/28/2021 4:00:00 PM 6.9667 2.7522
9/28/2021 4:15:00 PM 6.9715 2.7747
9/28/2021 4:30:00 PM 6.9775 2.7536
9/28/2021 4:45:00 PM 6.9814 2.7379
9/28/2021 5:00:00 PM 6.9859 2.8131
9/28/2021 5:15:00 PM 6.9893 2.7658
9/28/2021 5:30:00 PM 6.9951 2.7238
9/28/2021 5:45:00 PM 6.9972 2.8
9/28/2021 6:00:00 PM 7.0001 2.7692
9/28/2021 6:15:00 PM 7.002 2.7405
9/28/2021 6:30:00 PM 7.0055 2.728
9/28/2021 6:45:00 PM 7.0085 2.7339
9/28/2021 7:00:00 PM 7.0129 2.9767
9/28/2021 7:15:00 PM 7.0101 3.5763
9/28/2021 7:30:00 PM 7.0274 3.1744
9/28/2021 7:45:00 PM 7.0373 3.0723
9/28/2021 8:00:00 PM 7.0445 3.0344
9/28/2021 8:15:00 PM 7.0477 3.0123
9/28/2021 8:30:00 PM 7.0508 2.9355
9/28/2021 8:45:00 PM 7.0532 3
9/28/2021 9:00:00 PM 7.0573 3.0463
9/28/2021 9:15:00 PM 7.0568 2.9837
9/28/2021 9:30:00 PM 7.057 3.0001
9/28/2021 9:45:00 PM 7.0578 3.0259
9/28/2021 10:00:00 PM 7.0588 2.9386
9/28/2021 10:15:00 PM 7.0626 2.9446
9/28/2021 10:30:00 PM 7.0616 2.9374
9/28/2021 10:45:00 PM 7.0614 2.9494
9/28/2021 11:00:00 PM 7.0617 2.944
9/28/2021 11:15:00 PM 7.0602 2.9368
9/28/2021 11:30:00 PM 7.0579 2.9528
9/28/2021 11:45:00 PM 7.0588 3
9/29/2021 12:00:00 AM 7.054 2.9492
9/29/2021 12:15:00 AM 7.0526 2.9495
9/29/2021 12:30:00 AM 7.0527 2.9578
9/29/2021 12:45:00 AM 7.0532 2.9472
9/29/2021 1:00:00 AM 7.0522 2.9261
9/29/2021 1:15:00 AM 7.0487 3.0036
9/29/2021 1:30:00 AM 7.0435 3.0435
9/29/2021 1:45:00 AM 7.0408 3.0391
9/29/2021 2:00:00 AM 7.0388 3.0422
9/29/2021 2:15:00 AM 7.0359 3.0794
9/29/2021 2:30:00 AM 7.0334 3.0914
9/29/2021 2:45:00 AM 7.0322 3.0998
9/29/2021 3:00:00 AM 7.0376 3.0543
9/29/2021 3:15:00 AM 7.0359 3.0364
9/29/2021 3:30:00 AM 7.0349 2.9644
9/29/2021 3:45:00 AM 7.0344 3.048
9/29/2021 4:00:00 AM 7.0336 3.0268
9/29/2021 4:15:00 AM 7.0292 3.054
9/29/2021 4:30:00 AM 7.0283 2.9962
9/29/2021 4:45:00 AM 7.025 3.0446
9/29/2021 5:00:00 AM 7.0241 3.0528
9/29/2021 5:15:00 AM 7.0036 2.9777
9/29/2021 5:30:00 AM 6.9926 3.0441
9/29/2021 5:45:00 AM 6.9832 3
9/29/2021 6:00:00 AM 6.9784 2.9088
9/29/2021 6:15:00 AM 6.9768 2.9442
9/29/2021 6:30:00 AM 6.9732 2.9208
9/29/2021 6:45:00 AM 6.9715 2.9016
9/29/2021 7:00:00 AM 6.9754 2.8311
9/29/2021 7:15:00 AM 6.9744 2.8525
9/29/2021 7:30:00 AM 6.9762 2.8394
9/29/2021 7:45:00 AM 6.9792 2.8402
9/29/2021 8:00:00 AM 6.9815 2.8745
9/29/2021 8:15:00 AM 6.9854 2.8525
9/29/2021 8:30:00 AM 6.9872 2.8089
9/29/2021 8:45:00 AM 6.993 2.8
9/29/2021 9:00:00 AM 6.9989 2.7733
9/29/2021 9:15:00 AM 7.0097 2.9835
9/29/2021 9:30:00 AM 7.0141 2.8567
9/29/2021 9:45:00 AM 7.014 2.7476
9/29/2021 10:00:00 AM 7.0151 2.7335
9/29/2021 10:15:00 AM 7.0174 2.73
9/29/2021 10:30:00 AM 7.02 2.7442
9/29/2021 10:45:00 AM 7.0232 2.726
9/29/2021 11:00:00 AM 7.031 2.7382
9/29/2021 11:15:00 AM 7.0328 2.745
9/29/2021 11:30:00 AM 7.0342 2.7624
9/29/2021 11:45:00 AM 7.0392 2.7001
9/29/2021 12:00:00 PM 7.0472 2.7966
9/29/2021 12:15:00 PM 7.0498 2.769
9/29/2021 12:30:00 PM 7.0538 2.7543
9/29/2021 12:45:00 PM 7.0584 2.7534
9/29/2021 1:00:00 PM 7.0522 2.6864
9/29/2021 1:15:00 PM 7.0515 2.7234
9/29/2021 1:30:00 PM 7.0547 2.7379
9/29/2021 1:45:00 PM 7.0618 2.6701
9/29/2021 2:00:00 PM 7.0675 2.6606
9/29/2021 2:15:00 PM 7.073 2.6535
9/29/2021 2:30:00 PM 7.0803 2.6078
9/29/2021 2:45:00 PM 7.0844 2.6506
9/29/2021 3:00:00 PM 7.0889 2.5328
9/29/2021 3:15:00 PM 7.0961 2.5411
9/29/2021 3:30:00 PM 7.1033 2.525
9/29/2021 3:45:00 PM 7.1117 2.5474
9/29/2021 4:00:00 PM 7.1174 2.608
9/29/2021 4:15:00 PM 7.1222 2.5589
9/29/2021 4:30:00 PM 7.1294 2.5258
9/29/2021 4:45:00 PM 7.1361 2.5233
9/29/2021 5:00:00 PM 7.1423 2.5762
9/29/2021 5:15:00 PM 7.146 2.6473
9/29/2021 5:30:00 PM 7.1502 2.5408
9/29/2021 5:45:00 PM 7.1554 2.6
9/29/2021 6:00:00 PM 7.1622 2.6413
9/29/2021 6:15:00 PM 7.1673 2.6434
9/29/2021 6:30:00 PM 7.1727 2.6456
9/29/2021 6:45:00 PM 7.1752 2.6297
9/29/2021 7:00:00 PM 7.1789 2.6127
9/29/2021 7:15:00 PM 7.1789 2.6518
9/29/2021 7:30:00 PM 7.1806 2.7019
9/29/2021 7:45:00 PM 7.1785 2.6393
9/29/2021 8:00:00 PM 7.1787 2.6486
9/29/2021 8:15:00 PM 7.1785 2.7569
9/29/2021 8:30:00 PM 7.1757 2.728
9/29/2021 8:45:00 PM 7.1708 2.8001
9/29/2021 9:00:00 PM 7.1674 2.9435
9/29/2021 9:15:00 PM 7.1642 2.846
9/29/2021 9:30:00 PM 7.1605 2.8961
9/29/2021 9:45:00 PM 7.1498 3.6918
9/29/2021 10:00:00 PM 7.1517 3.5056
9/29/2021 10:15:00 PM 7.1566 3.3089
9/29/2021 10:30:00 PM 7.1583 3.1943
9/29/2021 10:45:00 PM 7.1554 3.1731
9/29/2021 11:00:00 PM 7.154 3.0667
9/29/2021 11:15:00 PM 7.1495 3.0928
9/29/2021 11:30:00 PM 7.1455 3.197
9/29/2021 11:45:00 PM 7.1442 3.2
9/30/2021 12:00:00 AM 7.1402 3.0356
9/30/2021 12:15:00 AM 7.1356 3.103
9/30/2021 12:30:00 AM 7.1316 3.2044
9/30/2021 12:45:00 AM 7.1269 3.02
9/30/2021 1:00:00 AM 7.1206 2.9706
9/30/2021 1:15:00 AM 7.1155 3.0813
9/30/2021 1:30:00 AM 7.1104 3.1473
9/30/2021 1:45:00 AM 7.1111 3.3201
9/30/2021 2:00:00 AM 7.1072 3.2292
9/30/2021 2:15:00 AM 7.1059 3.3194
9/30/2021 2:30:00 AM 7.1033 3.2029
9/30/2021 2:45:00 AM 7.105 3.1998
9/30/2021 3:00:00 AM 7.1002 3.1105
9/30/2021 3:15:00 AM 7.0968 3.129
9/30/2021 3:30:00 AM 7.0925 3.1967
9/30/2021 3:45:00 AM 7.0916 3.1782
9/30/2021 4:00:00 AM 7.0915 3.1788
9/30/2021 4:15:00 AM 7.0897 3.0504
9/30/2021 4:30:00 AM 7.0873 2.9564
9/30/2021 4:45:00 AM 7.0869 2.9105
9/30/2021 5:00:00 AM 7.0865 2.8933
9/30/2021 5:15:00 AM 7.0861 2.9497
9/30/2021 5:30:00 AM 7.0897 2.9145
9/30/2021 5:45:00 AM 7.091 3
9/30/2021 6:00:00 AM 7.0808 3.0057
9/30/2021 6:15:00 AM 7.0563 2.8727
9/30/2021 6:30:00 AM 7.0352 2.8421
9/30/2021 6:45:00 AM 7.0269 2.8461
9/30/2021 7:00:00 AM 7.0244 2.8249
9/30/2021 7:15:00 AM 7.0251 2.8521
9/30/2021 7:30:00 AM 7.0296 2.8318
9/30/2021 7:45:00 AM 7.0344 2.8466
9/30/2021 8:00:00 AM 7.036 2.8571
9/30/2021 8:15:00 AM 7.0345 2.8564
9/30/2021 8:30:00 AM 7.0395 2.8166
9/30/2021 8:45:00 AM 7.0448 2.8
9/30/2021 9:00:00 AM 7.0484 2.7412
9/30/2021 9:15:00 AM 7.0557 2.7209
9/30/2021 9:30:00 AM 7.06 2.63
9/30/2021 9:45:00 AM 7.0619 2.6329
9/30/2021 10:00:00 AM 7.062 2.6834
9/30/2021 10:15:00 AM 7.0663 2.6769
9/30/2021 10:30:00 AM 7.0684 2.6449
9/30/2021 10:45:00 AM 7.0714 2.6442
9/30/2021 11:00:00 AM 7.0748 2.6207
9/30/2021 11:15:00 AM 7.0818 2.6329
9/30/2021 11:30:00 AM 7.0871 2.6277
9/30/2021 11:45:00 AM 7.0882 2.7
9/30/2021 12:00:00 PM 7.0965 2.6289
9/30/2021 12:15:00 PM 7.0995 2.6383
9/30/2021 12:30:00 PM 7.1009 2.5401
9/30/2021 12:45:00 PM 7.1016 2.5552
9/30/2021 1:00:00 PM 7.1074 2.5496
9/30/2021 1:15:00 PM 7.1141 2.5191
9/30/2021 1:30:00 PM 7.1201 2.5325
9/30/2021 1:45:00 PM 7.1234 2.5522
9/30/2021 2:00:00 PM 7.1267 2.516
9/30/2021 2:15:00 PM 7.1257 3.101
9/30/2021 2:30:00 PM 7.1444 2.8273
9/30/2021 2:45:00 PM 7.1603 2.7139
9/30/2021 3:00:00 PM 7.1727 2.6339
9/30/2021 3:15:00 PM 7.1871 2.6701
9/30/2021 3:30:00 PM 7.1989 2.615
9/30/2021 3:45:00 PM 7.2064 2.5375
9/30/2021 4:00:00 PM 7.2143 2.6248
9/30/2021 4:15:00 PM 7.226 2.5827
9/30/2021 4:30:00 PM 7.2319 2.529
9/30/2021 4:45:00 PM 7.2417 2.5417
9/30/2021 5:00:00 PM 7.2535 2.5489
9/30/2021 5:15:00 PM 7.2657 2.5228
9/30/2021 5:30:00 PM 7.2737 2.4859
9/30/2021 5:45:00 PM 7.2772 2.4997
9/30/2021 6:00:00 PM 7.2857 2.5421
9/30/2021 6:15:00 PM 7.2945 2.5046
9/30/2021 6:30:00 PM 7.3009 2.445
9/30/2021 6:45:00 PM 7.3062 2.4396
9/30/2021 7:00:00 PM 7.305 2.4792
9/30/2021 7:15:00 PM 7.3049 2.5291
9/30/2021 7:30:00 PM 7.3054 2.5446
9/30/2021 7:45:00 PM 7.3073 2.652
9/30/2021 8:00:00 PM 7.3052 2.6012
9/30/2021 8:15:00 PM 7.3057 2.6881
9/30/2021 8:30:00 PM 7.3048 2.6722
9/30/2021 8:45:00 PM 7.3024 2.7999
9/30/2021 9:00:00 PM 7.2994 2.7403
9/30/2021 9:15:00 PM 7.2996 2.7249
9/30/2021 9:30:00 PM 7.2997 2.7114
9/30/2021 9:45:00 PM 7.2995 2.6478
9/30/2021 10:00:00 PM 7.2997 2.6514
9/30/2021 10:15:00 PM 7.2995 2.6339
9/30/2021 10:30:00 PM 7.2993 2.7859
9/30/2021 10:45:00 PM 7.3002 2.7142
9/30/2021 11:00:00 PM 7.2955 2.6494
9/30/2021 11:15:00 PM 7.2945 2.6339
9/30/2021 11:30:00 PM 7.2897 2.6551
9/30/2021 11:45:00 PM 7.294 2.7
10/1/2021 12:00:00 AM 7.2843 3.177
10/1/2021 12:15:00 AM 7.2754 3.3688
10/1/2021 12:30:00 AM 7.2687 3.1618
10/1/2021 12:45:00 AM 7.2613 2.8732
10/1/2021 1:00:00 AM 7.2536 2.9973
10/1/2021 1:15:00 AM 7.2506 3.0355
10/1/2021 1:30:00 AM 7.2428 2.9924
10/1/2021 1:45:00 AM 7.2315 2.9737
10/1/2021 2:00:00 AM 7.2269 2.7656
10/1/2021 2:15:00 AM 7.2205 2.7457
10/1/2021 2:30:00 AM 7.2092 2.8655
10/1/2021 2:45:00 AM 7.2002 2.8
10/1/2021 3:00:00 AM 7.1956 2.8141
10/1/2021 3:15:00 AM 7.1899 2.7579
10/1/2021 3:30:00 AM 7.1834 2.9063
10/1/2021 3:45:00 AM 7.1777 2.8476
10/1/2021 4:00:00 AM 7.1582 2.8595
10/1/2021 4:15:00 AM 7.1385 2.8186
10/1/2021 4:30:00 AM 7.1171 2.7347
10/1/2021 4:45:00 AM 7.1047 2.7868
10/1/2021 5:00:00 AM 7.1038 2.7289
10/1/2021 5:15:00 AM 7.1022 2.7223
10/1/2021 5:30:00 AM 7.1095 2.7358
10/1/2021 5:45:00 AM 7.1106 2.8
10/1/2021 6:00:00 AM 7.1157 2.7316
10/1/2021 6:15:00 AM 7.1155 2.8347
10/1/2021 6:30:00 AM 7.1126 2.81
10/1/2021 6:45:00 AM 7.1142 2.746
10/1/2021 7:00:00 AM 7.1152 2.6912
10/1/2021 7:15:00 AM 7.1151 2.7563
10/1/2021 7:30:00 AM 7.1148 2.6793
10/1/2021 7:45:00 AM 7.1136 2.6879
10/1/2021 8:00:00 AM 7.1158 2.6642
10/1/2021 8:15:00 AM 7.1158 2.6458
10/1/2021 8:30:00 AM 7.1165 2.6614
10/1/2021 8:45:00 AM 7.1134